Time,TemperatureF,DewpointF,PressureIn,WindDirection,WindDirectionDegrees,WindSpeedMPH,WindSpeedGustMPH,Humidity,HourlyPrecipIn,Conditions,Clouds,dailyrainin,SoftwareType,DateUTC
2013-03-17 00:00:00,32.8,25.4,29.97,NNE,31,10.0,14.0,74,0.00,,---,0.00,VWS V14.01,2013-03-17 05:00:00,
2013-03-17 00:05:00,32.8,25.4,29.97,NNE,31,9.0,24.0,74,0.00,,---,0.00,VWS V14.01,2013-03-17 05:05:00,
2013-03-17 00:06:00,32.8,25.4,29.97,NNE,25,16.0,24.0,74,0.00,,---,0.00,VWS V14.01,2013-03-17 05:06:00,
2013-03-17 00:10:00,32.7,25.7,29.97,NE,44,10.0,11.0,75,0.00,,---,0.00,VWS V14.01,2013-03-17 05:10:00,
2013-03-17 00:11:00,32.7,25.7,29.97,NNE,28,16.0,24.0,75,0.00,,---,0.00,VWS V14.01,2013-03-17 05:11:00,
2013-03-17 00:15:00,32.7,25.7,29.97,NNE,30,16.0,24.0,75,0.00,,---,0.00,VWS V14.01,2013-03-17 05:15:00,
2013-03-17 00:16:00,32.7,25.7,29.97,NNE,26,15.0,24.0,75,0.00,,---,0.00,VWS V14.01,2013-03-17 05:16:00,
2013-03-17 00:20:00,32.7,25.7,29.97,ENE,57,17.0,17.0,75,0.00,,---,0.00,VWS V14.01,2013-03-17 05:20:00,
2013-03-17 00:21:00,32.7,25.7,29.97,NE,46,12.0,20.0,75,0.00,,---,0.00,VWS V14.01,2013-03-17 05:21:00,
2013-03-17 00:25:00,32.7,25.7,29.97,NE,53,14.0,20.0,75,0.00,,---,0.00,VWS V14.01,2013-03-17 05:25:00,
2013-03-17 00:26:00,32.7,25.7,29.97,NE,46,10.0,20.0,75,0.00,,---,0.00,VWS V14.01,2013-03-17 05:26:00,
2013-03-17 00:27:00,32.7,25.7,29.97,NE,38,14.0,20.0,75,0.00,,---,0.00,VWS V14.01,2013-03-17 05:27:00,
2013-03-17 00:30:00,32.7,25.7,29.96,ENE,57,14.0,16.0,75,0.00,,---,0.00,VWS V14.01,2013-03-17 05:30:00,
2013-03-17 00:31:00,32.7,25.7,29.96,NE,44,14.0,17.0,75,0.00,,---,0.00,VWS V14.01,2013-03-17 05:31:00,
2013-03-17 00:32:00,32.7,25.7,29.96,NE,39,16.0,18.0,75,0.00,,---,0.00,VWS V14.01,2013-03-17 05:32:00,
2013-03-17 00:35:00,32.7,25.7,29.96,NE,51,15.0,21.0,75,0.00,,---,0.00,VWS V14.01,2013-03-17 05:35:00,
2013-03-17 00:37:00,32.7,25.7,29.96,NNE,26,11.0,21.0,75,0.00,,---,0.00,VWS V14.01,2013-03-17 05:37:00,
2013-03-17 00:40:00,32.7,25.7,29.96,NE,49,13.0,15.0,75,0.00,,---,0.00,VWS V14.01,2013-03-17 05:40:00,
2013-03-17 00:42:00,32.7,26.0,29.96,NE,47,14.0,18.0,76,0.00,,---,0.00,VWS V14.01,2013-03-17 05:42:00,
2013-03-17 00:45:00,32.7,26.0,29.96,ENE,69,14.0,19.0,76,0.00,,---,0.00,VWS V14.01,2013-03-17 05:45:00,
2013-03-17 00:47:00,32.5,25.8,29.96,NE,51,11.0,19.0,76,0.00,,---,0.00,VWS V14.01,2013-03-17 05:47:00,
2013-03-17 00:50:00,32.7,25.7,29.96,NNE,32,16.0,18.0,75,0.00,,---,0.00,VWS V14.01,2013-03-17 05:50:00,
2013-03-17 00:52:00,32.7,25.7,29.96,NE,49,17.0,18.0,75,0.00,,---,0.00,VWS V14.01,2013-03-17 05:52:00,
2013-03-17 00:55:00,32.5,25.1,29.96,NE,46,19.0,23.0,74,0.00,,---,0.00,VWS V14.01,2013-03-17 05:55:00,
2013-03-17 00:57:00,32.5,25.1,29.96,NE,44,13.0,23.0,74,0.00,,---,0.00,VWS V14.01,2013-03-17 05:57:00,
2013-03-17 01:00:00,32.5,25.1,29.96,ENE,59,16.0,17.0,74,0.00,,---,0.00,VWS V14.01,2013-03-17 06:00:00,
2013-03-17 01:02:00,32.5,25.1,29.96,NE,56,18.0,20.0,74,0.00,,---,0.00,VWS V14.01,2013-03-17 06:02:00,
2013-03-17 01:05:00,32.5,25.1,29.96,NE,40,15.0,22.0,74,0.00,,---,0.00,VWS V14.01,2013-03-17 06:05:00,
2013-03-17 01:07:00,32.5,25.1,29.96,NE,40,18.0,22.0,74,0.00,,---,0.00,VWS V14.01,2013-03-17 06:07:00,
2013-03-17 01:10:00,32.5,25.1,29.96,NE,54,19.0,19.0,74,0.00,,---,0.00,VWS V14.01,2013-03-17 06:10:00,
2013-03-17 01:12:00,32.5,25.1,29.96,NE,41,14.0,19.0,74,0.00,,---,0.00,VWS V14.01,2013-03-17 06:12:00,
2013-03-17 01:16:00,32.5,25.5,29.97,ENE,59,13.0,19.0,75,0.00,,---,0.00,VWS V14.01,2013-03-17 06:16:00,
2013-03-17 01:17:00,32.5,25.5,29.97,NE,53,10.0,19.0,75,0.00,,---,0.00,VWS V14.01,2013-03-17 06:17:00,
2013-03-17 01:20:00,32.5,25.5,29.97,NE,49,14.0,19.0,75,0.00,,---,0.00,VWS V14.01,2013-03-17 06:20:00,
2013-03-17 01:21:00,32.5,25.5,29.97,NE,49,14.0,17.0,75,0.00,,---,0.00,VWS V14.01,2013-03-17 06:21:00,
2013-03-17 01:22:00,32.5,25.5,29.97,ENE,59,14.0,17.0,75,0.00,,---,0.00,VWS V14.01,2013-03-17 06:22:00,
2013-03-17 01:23:00,32.5,25.5,29.97,ENE,65,12.0,17.0,75,0.00,,---,0.00,VWS V14.01,2013-03-17 06:23:00,
2013-03-17 01:26:00,32.7,25.7,29.97,ENE,67,15.0,17.0,75,0.00,,---,0.00,VWS V14.01,2013-03-17 06:26:00,
2013-03-17 01:27:00,32.7,25.7,29.97,ENE,61,10.0,17.0,75,0.00,,---,0.00,VWS V14.01,2013-03-17 06:27:00,
2013-03-17 01:28:00,32.7,25.7,29.97,ENE,63,10.0,17.0,75,0.00,,---,0.00,VWS V14.01,2013-03-17 06:28:00,
2013-03-17 01:30:00,32.7,25.7,29.98,NE,53,11.0,17.0,75,0.00,,---,0.00,VWS V14.01,2013-03-17 06:30:00,
2013-03-17 01:31:00,32.7,25.7,29.98,NE,45,17.0,17.0,75,0.00,,---,0.00,VWS V14.01,2013-03-17 06:31:00,
2013-03-17 01:32:00,32.7,25.7,29.98,NE,54,13.0,17.0,75,0.00,,---,0.00,VWS V14.01,2013-03-17 06:32:00,
2013-03-17 01:33:00,32.7,25.7,29.98,NE,43,15.0,17.0,75,0.00,,---,0.00,VWS V14.01,2013-03-17 06:33:00,
2013-03-17 01:36:00,32.7,25.7,29.98,NE,49,15.0,17.0,75,0.00,,---,0.00,VWS V14.01,2013-03-17 06:36:00,
2013-03-17 01:37:00,32.7,25.7,29.98,ENE,59,10.0,17.0,75,0.00,,---,0.00,VWS V14.01,2013-03-17 06:37:00,
2013-03-17 01:38:00,32.7,25.7,29.98,ENE,65,10.0,17.0,75,0.00,,---,0.00,VWS V14.01,2013-03-17 06:38:00,
2013-03-17 01:40:00,32.7,25.7,29.98,ENE,69,10.0,17.0,75,0.00,,---,0.00,VWS V14.01,2013-03-17 06:40:00,
2013-03-17 01:42:00,32.7,25.7,29.98,ENE,57,17.0,19.0,75,0.00,,---,0.00,VWS V14.01,2013-03-17 06:42:00,
2013-03-17 01:43:00,32.7,25.7,29.98,ENE,59,17.0,19.0,75,0.00,,---,0.00,VWS V14.01,2013-03-17 06:43:00,
2013-03-17 01:47:00,32.7,25.7,29.97,NE,42,11.0,19.0,75,0.00,,---,0.00,VWS V14.01,2013-03-17 06:47:00,
2013-03-17 01:48:00,32.7,25.7,29.97,NE,46,13.0,19.0,75,0.00,,---,0.00,VWS V14.01,2013-03-17 06:48:00,
2013-03-17 01:50:00,32.5,25.5,29.97,NE,53,14.0,19.0,75,0.00,,---,0.00,VWS V14.01,2013-03-17 06:50:00,
2013-03-17 01:52:00,32.5,25.5,29.97,NE,55,14.0,16.0,75,0.00,,---,0.00,VWS V14.01,2013-03-17 06:52:00,
2013-03-17 01:53:00,32.5,25.5,29.97,NE,53,14.0,16.0,75,0.00,,---,0.00,VWS V14.01,2013-03-17 06:53:00,
2013-03-17 01:57:00,32.5,25.5,29.97,NE,54,17.0,18.0,75,0.00,,---,0.00,VWS V14.01,2013-03-17 06:57:00,
2013-03-17 01:58:00,32.5,25.5,29.97,NE,54,18.0,18.0,75,0.00,,---,0.00,VWS V14.01,2013-03-17 06:58:00,
2013-03-17 02:00:00,32.5,25.5,29.97,NE,52,4.0,18.0,75,0.00,,---,0.00,VWS V14.01,2013-03-17 07:00:00,
2013-03-17 02:02:00,32.5,25.5,29.97,NE,45,10.0,17.0,75,0.00,,---,0.00,VWS V14.01,2013-03-17 07:02:00,
2013-03-17 02:03:00,32.5,25.5,29.97,NE,42,13.0,17.0,75,0.00,,---,0.00,VWS V14.01,2013-03-17 07:03:00,
2013-03-17 02:07:00,32.5,25.5,29.97,NE,49,12.0,18.0,75,0.00,,---,0.00,VWS V14.01,2013-03-17 07:07:00,
2013-03-17 02:08:00,32.5,25.5,29.97,ENE,63,12.0,18.0,75,0.00,,---,0.00,VWS V14.01,2013-03-17 07:08:00,
2013-03-17 02:10:00,32.5,25.5,29.97,NE,53,15.0,18.0,75,0.00,,---,0.00,VWS V14.01,2013-03-17 07:10:00,
2013-03-17 02:12:00,32.5,25.5,29.97,NE,47,5.0,15.0,75,0.00,,---,0.00,VWS V14.01,2013-03-17 07:12:00,
2013-03-17 02:13:00,32.5,25.5,29.97,NE,42,10.0,15.0,75,0.00,,---,0.00,VWS V14.01,2013-03-17 07:13:00,
2013-03-17 02:17:00,32.4,25.4,29.97,NE,51,12.0,18.0,75,0.00,,---,0.00,VWS V14.01,2013-03-17 07:17:00,
2013-03-17 02:18:00,32.4,25.4,29.97,NE,44,14.0,18.0,75,0.00,,---,0.00,VWS V14.01,2013-03-17 07:18:00,
2013-03-17 02:20:00,32.4,25.4,29.97,NE,46,12.0,18.0,75,0.00,,---,0.00,VWS V14.01,2013-03-17 07:20:00,
2013-03-17 02:22:00,32.4,25.4,29.97,NNE,30,5.0,16.0,75,0.00,,---,0.00,VWS V14.01,2013-03-17 07:22:00,
2013-03-17 02:23:00,32.4,25.7,29.97,NE,40,10.0,16.0,76,0.00,,---,0.00,VWS V14.01,2013-03-17 07:23:00,
2013-03-17 02:27:00,32.4,25.7,29.97,NE,44,14.0,17.0,76,0.00,,---,0.00,VWS V14.01,2013-03-17 07:27:00,
2013-03-17 02:28:00,32.4,25.7,29.97,NE,45,16.0,17.0,76,0.00,,---,0.00,VWS V14.01,2013-03-17 07:28:00,
2013-03-17 02:30:00,32.4,25.7,29.96,NE,54,12.0,17.0,76,0.00,,---,0.00,VWS V14.01,2013-03-17 07:30:00,
2013-03-17 02:33:00,32.4,25.7,29.96,NE,51,10.0,17.0,76,0.00,,---,0.00,VWS V14.01,2013-03-17 07:33:00,
2013-03-17 02:38:00,32.4,25.7,29.96,NE,53,15.0,17.0,76,0.00,,---,0.00,VWS V14.01,2013-03-17 07:38:00,
2013-03-17 02:40:00,32.2,25.5,29.96,NE,51,12.0,17.0,76,0.00,,---,0.00,VWS V14.01,2013-03-17 07:40:00,
2013-03-17 02:43:00,32.2,25.5,29.96,ENE,62,16.0,16.0,76,0.00,,---,0.00,VWS V14.01,2013-03-17 07:43:00,
2013-03-17 02:48:00,32.2,25.5,29.95,ENE,57,12.0,17.0,76,0.00,,---,0.00,VWS V14.01,2013-03-17 07:48:00,
2013-03-17 02:50:00,32.2,25.5,29.95,NE,47,14.0,17.0,76,0.00,,---,0.00,VWS V14.01,2013-03-17 07:50:00,
2013-03-17 02:53:00,32.2,25.5,29.95,NE,53,11.0,16.0,76,0.00,,---,0.00,VWS V14.01,2013-03-17 07:53:00,
2013-03-17 02:54:00,32.2,25.5,29.95,ENE,62,13.0,16.0,76,0.00,,---,0.00,VWS V14.01,2013-03-17 07:54:00,
2013-03-17 02:58:00,32.2,25.5,29.95,ENE,58,14.0,20.0,76,0.00,,---,0.00,VWS V14.01,2013-03-17 07:58:00,
2013-03-17 02:59:00,32.2,25.5,29.95,ENE,63,14.0,20.0,76,0.00,,---,0.00,VWS V14.01,2013-03-17 07:59:00,
2013-03-17 03:00:00,32.2,25.5,29.95,ENE,62,11.0,20.0,76,0.00,,---,0.00,VWS V14.01,2013-03-17 08:00:00,
2013-03-17 03:03:00,32.2,25.5,29.95,ENE,57,17.0,18.0,76,0.00,,---,0.00,VWS V14.01,2013-03-17 08:03:00,
2013-03-17 03:04:00,32.2,25.5,29.95,ENE,57,16.0,18.0,76,0.00,,---,0.00,VWS V14.01,2013-03-17 08:04:00,
2013-03-17 03:08:00,32.1,25.4,29.95,ENE,64,13.0,18.0,76,0.00,,---,0.00,VWS V14.01,2013-03-17 08:08:00,
2013-03-17 03:09:00,32.1,25.4,29.95,ENE,63,12.0,18.0,76,0.00,,---,0.00,VWS V14.01,2013-03-17 08:09:00,
2013-03-17 03:10:00,32.1,25.4,29.95,NE,49,17.0,18.0,76,0.00,,---,0.00,VWS V14.01,2013-03-17 08:10:00,
2013-03-17 03:13:00,32.1,25.4,29.95,ENE,63,12.0,17.0,76,0.00,,---,0.00,VWS V14.01,2013-03-17 08:13:00,
2013-03-17 03:14:00,32.1,25.4,29.95,ENE,68,13.0,17.0,76,0.00,,---,0.00,VWS V14.01,2013-03-17 08:14:00,
2013-03-17 03:18:00,32.1,25.7,29.95,NE,47,12.0,17.0,77,0.00,,---,0.00,VWS V14.01,2013-03-17 08:18:00,
2013-03-17 03:19:00,32.1,25.7,29.95,ENE,66,10.0,17.0,77,0.00,,---,0.00,VWS V14.01,2013-03-17 08:19:00,
2013-03-17 03:20:00,32.1,25.7,29.95,ENE,59,13.0,17.0,77,0.00,,---,0.00,VWS V14.01,2013-03-17 08:20:00,
2013-03-17 03:23:00,31.9,25.5,29.95,ENE,63,14.0,18.0,77,0.00,,---,0.00,VWS V14.01,2013-03-17 08:23:00,
2013-03-17 03:24:00,31.9,25.5,29.95,ENE,62,15.0,18.0,77,0.00,,---,0.00,VWS V14.01,2013-03-17 08:24:00,
2013-03-17 03:28:00,31.9,25.5,29.95,ENE,67,12.0,18.0,77,0.00,,---,0.00,VWS V14.01,2013-03-17 08:28:00,
2013-03-17 03:29:00,31.9,25.5,29.95,ENE,63,13.0,18.0,77,0.00,,---,0.00,VWS V14.01,2013-03-17 08:29:00,
2013-03-17 03:30:00,31.9,25.5,29.94,ENE,64,13.0,18.0,77,0.00,,---,0.00,VWS V14.01,2013-03-17 08:30:00,
2013-03-17 03:34:00,31.9,25.5,29.94,ENE,63,13.0,15.0,77,0.00,,---,0.00,VWS V14.01,2013-03-17 08:34:00,
2013-03-17 03:39:00,31.9,25.8,29.94,ENE,63,14.0,16.0,78,0.00,,---,0.00,VWS V14.01,2013-03-17 08:39:00,
2013-03-17 03:40:00,31.9,25.8,29.94,ENE,63,14.0,16.0,78,0.00,,---,0.00,VWS V14.01,2013-03-17 08:40:00,
2013-03-17 03:44:00,31.9,25.8,29.94,ENE,64,13.0,18.0,78,0.00,,---,0.00,VWS V14.01,2013-03-17 08:44:00,
2013-03-17 03:49:00,31.9,25.8,29.92,ENE,70,14.0,18.0,78,0.00,,---,0.00,VWS V14.01,2013-03-17 08:49:00,
2013-03-17 03:50:00,31.9,25.8,29.92,East,81,12.0,13.0,78,0.00,,---,0.00,VWS V14.01,2013-03-17 08:50:00,
2013-03-17 03:54:00,31.9,25.5,29.92,ENE,70,15.0,19.0,77,0.00,,---,0.00,VWS V14.01,2013-03-17 08:54:00,
2013-03-17 03:55:00,31.9,25.5,29.92,East,88,13.0,19.0,77,0.00,,---,0.00,VWS V14.01,2013-03-17 08:55:00,
2013-03-17 03:59:00,31.9,25.5,29.92,ENE,71,12.0,19.0,77,0.00,,---,0.00,VWS V14.01,2013-03-17 08:59:00,
2013-03-17 04:00:00,31.9,25.5,29.92,East,80,12.0,17.0,77,0.00,,---,0.00,VWS V14.01,2013-03-17 09:00:00,
2013-03-17 04:04:00,31.8,25.4,29.92,East,84,15.0,21.0,77,0.00,,---,0.00,VWS V14.01,2013-03-17 09:04:00,
2013-03-17 04:05:00,31.8,25.4,29.92,ENE,65,19.0,21.0,77,0.00,,---,0.00,VWS V14.01,2013-03-17 09:05:00,
2013-03-17 04:09:00,31.8,25.4,29.92,ENE,69,17.0,21.0,77,0.00,,---,0.00,VWS V14.01,2013-03-17 09:09:00,
2013-03-17 04:10:00,31.8,25.4,29.92,ENE,71,14.0,16.0,77,0.00,,---,0.00,VWS V14.01,2013-03-17 09:10:00,
2013-03-17 04:14:00,31.8,25.4,29.92,ENE,74,11.0,17.0,77,0.00,,---,0.00,VWS V14.01,2013-03-17 09:14:00,
2013-03-17 04:15:00,31.8,25.4,29.91,ENE,69,12.0,17.0,77,0.00,,---,0.00,VWS V14.01,2013-03-17 09:15:00,
2013-03-17 04:19:00,31.6,25.2,29.91,ENE,75,16.0,17.0,77,0.00,,---,0.00,VWS V14.01,2013-03-17 09:19:00,
2013-03-17 04:20:00,31.6,25.2,29.91,ENE,69,16.0,17.0,77,0.00,,---,0.00,VWS V14.01,2013-03-17 09:20:00,
2013-03-17 04:24:00,31.6,25.2,29.91,ENE,67,13.0,17.0,77,0.00,,---,0.00,VWS V14.01,2013-03-17 09:24:00,
2013-03-17 04:25:00,31.6,25.2,29.91,ENE,62,10.0,17.0,77,0.00,,---,0.00,VWS V14.01,2013-03-17 09:25:00,
2013-03-17 04:29:00,31.6,25.2,29.90,ENE,61,13.0,17.0,77,0.00,,---,0.00,VWS V14.01,2013-03-17 09:29:00,
2013-03-17 04:30:00,31.6,25.2,29.90,ENE,67,15.0,17.0,77,0.00,,---,0.00,VWS V14.01,2013-03-17 09:30:00,
2013-03-17 04:34:00,31.5,25.1,29.90,ENE,69,17.0,20.0,77,0.00,,---,0.00,VWS V14.01,2013-03-17 09:34:00,
2013-03-17 04:35:00,31.5,25.1,29.90,ENE,70,13.0,20.0,77,0.00,,---,0.00,VWS V14.01,2013-03-17 09:35:00,
2013-03-17 04:39:00,31.5,25.4,29.90,ENE,74,13.0,20.0,78,0.00,,---,0.00,VWS V14.01,2013-03-17 09:39:00,
2013-03-17 04:40:00,31.5,25.4,29.90,ENE,71,16.0,16.0,78,0.00,,---,0.00,VWS V14.01,2013-03-17 09:40:00,
2013-03-17 04:44:00,31.5,25.4,29.89,ENE,73,16.0,18.0,78,0.00,,---,0.00,VWS V14.01,2013-03-17 09:44:00,
2013-03-17 04:45:00,31.5,25.4,29.89,ENE,78,15.0,18.0,78,0.00,,---,0.00,VWS V14.01,2013-03-17 09:45:00,
2013-03-17 04:49:00,31.3,25.2,29.89,ENE,61,18.0,19.0,78,0.00,,---,0.00,VWS V14.01,2013-03-17 09:49:00,
2013-03-17 04:50:00,31.3,25.2,29.89,ENE,65,15.0,15.0,78,0.00,,---,0.00,VWS V14.01,2013-03-17 09:50:00,
2013-03-17 04:54:00,31.3,25.2,29.89,ENE,66,12.0,18.0,78,0.00,,---,0.00,VWS V14.01,2013-03-17 09:54:00,
2013-03-17 04:55:00,31.3,25.2,29.89,ENE,63,12.0,18.0,78,0.00,,---,0.00,VWS V14.01,2013-03-17 09:55:00,
2013-03-17 04:59:00,31.3,25.2,29.90,ENE,57,10.0,18.0,78,0.00,,---,0.00,VWS V14.01,2013-03-17 09:59:00,
2013-03-17 05:00:00,31.3,25.2,29.90,NE,53,11.0,13.0,78,0.00,,---,0.00,VWS V14.01,2013-03-17 10:00:00,
2013-03-17 05:04:00,31.3,25.2,29.90,NE,47,11.0,13.0,78,0.00,,---,0.00,VWS V14.01,2013-03-17 10:04:00,
2013-03-17 05:05:00,31.3,25.2,29.90,NE,55,14.0,15.0,78,0.00,,---,0.00,VWS V14.01,2013-03-17 10:05:00,
2013-03-17 05:06:00,31.3,25.2,29.90,NE,55,13.0,15.0,78,0.00,,---,0.00,VWS V14.01,2013-03-17 10:06:00,
2013-03-17 05:09:00,31.3,25.2,29.90,NE,44,12.0,16.0,78,0.00,,---,0.00,VWS V14.01,2013-03-17 10:09:00,
2013-03-17 05:10:00,31.3,25.2,29.90,NE,53,10.0,13.0,78,0.00,,---,0.00,VWS V14.01,2013-03-17 10:10:00,
2013-03-17 05:11:00,31.3,25.2,29.90,NE,45,12.0,13.0,78,0.00,,---,0.00,VWS V14.01,2013-03-17 10:11:00,
2013-03-17 05:14:00,31.3,25.2,29.90,NE,56,11.0,17.0,78,0.00,,---,0.00,VWS V14.01,2013-03-17 10:14:00,
2013-03-17 05:15:00,31.3,25.2,29.90,ENE,61,11.0,17.0,78,0.00,,---,0.00,VWS V14.01,2013-03-17 10:15:00,
2013-03-17 05:16:00,31.3,25.2,29.90,ENE,59,14.0,17.0,78,0.00,,---,0.00,VWS V14.01,2013-03-17 10:16:00,
2013-03-17 05:19:00,31.3,25.2,29.90,ENE,57,12.0,17.0,78,0.00,,---,0.00,VWS V14.01,2013-03-17 10:19:00,
2013-03-17 05:20:00,31.3,25.2,29.90,ENE,63,11.0,17.0,78,0.00,,---,0.00,VWS V14.01,2013-03-17 10:20:00,
2013-03-17 05:21:00,31.3,25.2,29.90,NE,53,12.0,12.0,78,0.00,,---,0.00,VWS V14.01,2013-03-17 10:21:00,
2013-03-17 05:24:00,31.3,25.2,29.90,NE,50,7.0,12.0,78,0.00,,---,0.00,VWS V14.01,2013-03-17 10:24:00,
2013-03-17 05:25:00,31.3,25.2,29.90,NE,50,6.0,12.0,78,0.00,,---,0.00,VWS V14.01,2013-03-17 10:25:00,
2013-03-17 05:26:00,31.3,25.2,29.90,NE,50,3.0,12.0,78,0.00,,---,0.00,VWS V14.01,2013-03-17 10:26:00,
2013-03-17 05:29:00,31.3,25.6,29.90,NE,51,6.0,12.0,79,0.00,,---,0.00,VWS V14.01,2013-03-17 10:29:00,
2013-03-17 05:30:00,31.3,25.6,29.90,NE,51,9.0,9.0,79,0.00,,---,0.00,VWS V14.01,2013-03-17 10:30:00,
2013-03-17 05:31:00,31.3,25.6,29.90,ENE,57,8.0,13.0,79,0.00,,---,0.00,VWS V14.01,2013-03-17 10:31:00,
2013-03-17 05:34:00,31.2,25.5,29.90,ENE,68,12.0,14.0,79,0.00,,---,0.00,VWS V14.01,2013-03-17 10:34:00,
2013-03-17 05:35:00,31.2,25.5,29.90,NE,56,11.0,14.0,79,0.00,,---,0.00,VWS V14.01,2013-03-17 10:35:00,
2013-03-17 05:36:00,31.2,25.5,29.90,NE,56,11.0,14.0,79,0.00,,---,0.00,VWS V14.01,2013-03-17 10:36:00,
2013-03-17 05:39:00,31.2,25.5,29.90,NE,48,6.0,14.0,79,0.00,,---,0.00,VWS V14.01,2013-03-17 10:39:00,
2013-03-17 05:40:00,31.2,25.5,29.90,NE,48,1.0,6.0,79,0.00,,---,0.00,VWS V14.01,2013-03-17 10:40:00,
2013-03-17 05:41:00,31.2,25.5,29.90,NE,42,10.0,10.0,79,0.00,,---,0.00,VWS V14.01,2013-03-17 10:41:00,
2013-03-17 05:44:00,31.2,25.5,29.91,NE,42,10.0,10.0,79,0.00,,---,0.00,VWS V14.01,2013-03-17 10:44:00,
2013-03-17 05:45:00,31.2,25.5,29.91,NE,42,10.0,11.0,79,0.00,,---,0.00,VWS V14.01,2013-03-17 10:45:00,
2013-03-17 05:46:00,31.2,25.5,29.91,NE,44,6.0,11.0,79,0.00,,---,0.00,VWS V14.01,2013-03-17 10:46:00,
2013-03-17 05:50:00,31.2,25.5,29.91,NE,47,12.0,14.0,79,0.00,,---,0.00,VWS V14.01,2013-03-17 10:50:00,
2013-03-17 05:51:00,31.2,25.5,29.91,NE,40,5.0,13.0,79,0.00,,---,0.00,VWS V14.01,2013-03-17 10:51:00,
2013-03-17 05:55:00,31.2,25.5,29.91,NE,40,7.0,13.0,79,0.00,,---,0.00,VWS V14.01,2013-03-17 10:55:00,
2013-03-17 05:58:00,31.2,25.5,29.91,NE,49,5.0,13.0,79,0.00,,---,0.00,VWS V14.01,2013-03-17 10:58:00,
2013-03-17 06:00:00,31.2,25.5,29.91,NE,45,6.0,7.0,79,0.00,,---,0.00,VWS V14.01,2013-03-17 11:00:00,
2013-03-17 06:03:00,31.2,25.5,29.91,NNE,24,3.0,7.0,79,0.00,,---,0.00,VWS V14.01,2013-03-17 11:03:00,
2013-03-17 06:05:00,31.2,25.5,29.91,NNE,30,0.0,9.0,79,0.00,,---,0.00,VWS V14.01,2013-03-17 11:05:00,
2013-03-17 06:08:00,31.2,25.5,29.91,NNE,28,4.0,9.0,79,0.00,,---,0.00,VWS V14.01,2013-03-17 11:08:00,
2013-03-17 06:10:00,31.0,25.3,29.91,NE,39,10.0,11.0,79,0.00,,---,0.00,VWS V14.01,2013-03-17 11:10:00,
2013-03-17 06:11:00,31.0,25.3,29.91,NE,40,10.0,11.0,79,0.00,,---,0.00,VWS V14.01,2013-03-17 11:11:00,
2013-03-17 06:13:00,31.0,25.3,29.91,NE,40,3.0,11.0,79,0.00,,---,0.00,VWS V14.01,2013-03-17 11:13:00,
2013-03-17 06:15:00,30.9,25.2,29.92,NE,40,6.0,11.0,79,0.00,,---,0.00,VWS V14.01,2013-03-17 11:15:00,
2013-03-17 06:16:00,30.9,25.5,29.92,NE,51,11.0,11.0,80,0.00,,---,0.00,VWS V14.01,2013-03-17 11:16:00,
2013-03-17 06:18:00,30.9,25.5,29.92,NNE,31,4.0,12.0,80,0.00,,---,0.00,VWS V14.01,2013-03-17 11:18:00,
2013-03-17 06:20:00,30.7,25.3,29.92,NE,38,7.0,7.0,80,0.00,,---,0.00,VWS V14.01,2013-03-17 11:20:00,
2013-03-17 06:21:00,30.7,25.3,29.92,NE,36,5.0,10.0,80,0.00,,---,0.00,VWS V14.01,2013-03-17 11:21:00,
2013-03-17 06:23:00,30.7,25.3,29.92,NE,41,7.0,14.0,80,0.00,,---,0.00,VWS V14.01,2013-03-17 11:23:00,
2013-03-17 06:25:00,30.7,25.6,29.92,NE,38,6.0,14.0,81,0.00,,---,0.00,VWS V14.01,2013-03-17 11:25:00,
2013-03-17 06:26:00,30.7,25.6,29.92,NE,40,4.0,14.0,81,0.00,,---,0.00,VWS V14.01,2013-03-17 11:26:00,
2013-03-17 06:28:00,30.7,25.6,29.92,NE,34,4.0,14.0,81,0.00,,---,0.00,VWS V14.01,2013-03-17 11:28:00,
2013-03-17 06:30:00,30.7,25.6,29.93,NE,34,6.0,6.0,81,0.00,,---,0.00,VWS V14.01,2013-03-17 11:30:00,
2013-03-17 06:31:00,30.7,25.6,29.93,NE,34,0.0,6.0,81,0.00,,---,0.00,VWS V14.01,2013-03-17 11:31:00,
2013-03-17 06:33:00,30.7,25.6,29.93,NNE,15,0.0,7.0,81,0.00,,---,0.00,VWS V14.01,2013-03-17 11:33:00,
2013-03-17 06:35:00,30.7,25.6,29.93,NNE,32,3.0,9.0,81,0.00,,---,0.00,VWS V14.01,2013-03-17 11:35:00,
2013-03-17 06:36:00,30.7,25.9,29.93,NE,45,3.0,10.0,82,0.00,,---,0.00,VWS V14.01,2013-03-17 11:36:00,
2013-03-17 06:38:00,30.7,25.9,29.93,NE,45,3.0,10.0,82,0.00,,---,0.00,VWS V14.01,2013-03-17 11:38:00,
2013-03-17 06:40:00,30.7,25.9,29.93,NE,47,6.0,10.0,82,0.00,,---,0.00,VWS V14.01,2013-03-17 11:40:00,
2013-03-17 06:41:00,30.7,25.9,29.93,NNE,33,6.0,10.0,82,0.00,,---,0.00,VWS V14.01,2013-03-17 11:41:00,
2013-03-17 06:43:00,30.7,25.9,29.93,NE,38,4.0,12.0,82,0.00,,---,0.00,VWS V14.01,2013-03-17 11:43:00,
2013-03-17 06:45:00,30.7,25.9,29.92,NE,46,4.0,12.0,82,0.00,,---,0.00,VWS V14.01,2013-03-17 11:45:00,
2013-03-17 06:46:00,30.9,26.1,29.92,NE,46,11.0,12.0,82,0.00,,---,0.00,VWS V14.01,2013-03-17 11:46:00,
2013-03-17 06:48:00,30.9,26.1,29.92,NE,44,10.0,12.0,82,0.00,,---,0.00,VWS V14.01,2013-03-17 11:48:00,
2013-03-17 06:50:00,30.9,26.1,29.92,NE,46,11.0,12.0,82,0.00,,---,0.00,VWS V14.01,2013-03-17 11:50:00,
2013-03-17 06:52:00,30.9,26.1,29.92,NE,51,7.0,12.0,82,0.00,,---,0.00,VWS V14.01,2013-03-17 11:52:00,
2013-03-17 06:53:00,30.9,26.4,29.92,NE,49,7.0,12.0,83,0.00,,---,0.00,VWS V14.01,2013-03-17 11:53:00,
2013-03-17 06:55:00,30.9,26.4,29.92,ENE,57,9.0,13.0,83,0.00,,---,0.00,VWS V14.01,2013-03-17 11:55:00,
2013-03-17 06:57:00,30.9,26.4,29.92,ENE,59,11.0,13.0,83,0.00,,---,0.00,VWS V14.01,2013-03-17 11:57:00,
2013-03-17 06:58:00,31.0,26.5,29.92,ENE,58,7.0,13.0,83,0.00,,---,0.00,VWS V14.01,2013-03-17 11:58:00,
2013-03-17 07:00:00,31.0,26.5,29.93,ENE,66,10.0,12.0,83,0.00,,---,0.00,VWS V14.01,2013-03-17 12:00:00,
2013-03-17 07:02:00,31.0,26.5,29.93,NE,53,10.0,12.0,83,0.00,,---,0.00,VWS V14.01,2013-03-17 12:02:00,
2013-03-17 07:03:00,31.0,26.5,29.93,NE,56,11.0,13.0,83,0.00,,---,0.00,VWS V14.01,2013-03-17 12:03:00,
2013-03-17 07:05:00,31.0,26.5,29.93,NE,51,9.0,13.0,83,0.00,,---,0.00,VWS V14.01,2013-03-17 12:05:00,
2013-03-17 07:06:00,31.0,26.5,29.93,NE,51,10.0,13.0,83,0.00,,---,0.00,VWS V14.01,2013-03-17 12:06:00,
2013-03-17 07:07:00,31.0,26.5,29.93,NE,47,10.0,13.0,83,0.00,,---,0.00,VWS V14.01,2013-03-17 12:07:00,
2013-03-17 07:08:00,31.0,26.5,29.93,NE,48,9.0,13.0,83,0.00,,---,0.00,VWS V14.01,2013-03-17 12:08:00,
2013-03-17 07:10:00,31.0,26.5,29.93,NE,50,12.0,13.0,83,0.00,,---,0.00,VWS V14.01,2013-03-17 12:10:00,
2013-03-17 07:12:00,31.0,26.5,29.93,ENE,65,12.0,14.0,83,0.00,,---,0.00,VWS V14.01,2013-03-17 12:12:00,
2013-03-17 07:13:00,31.0,26.5,29.93,ENE,63,13.0,15.0,83,0.00,,---,0.00,VWS V14.01,2013-03-17 12:13:00,
2013-03-17 07:15:00,31.0,26.5,29.92,NE,55,12.0,16.0,83,0.00,,---,0.00,VWS V14.01,2013-03-17 12:15:00,
2013-03-17 07:17:00,31.0,26.5,29.92,NE,53,10.0,16.0,83,0.00,,---,0.00,VWS V14.01,2013-03-17 12:17:00,
2013-03-17 07:18:00,31.0,26.5,29.92,NE,46,9.0,16.0,83,0.00,,---,0.00,VWS V14.01,2013-03-17 12:18:00,
2013-03-17 07:20:00,31.0,26.5,29.92,ENE,64,12.0,13.0,83,0.00,,---,0.00,VWS V14.01,2013-03-17 12:20:00,
2013-03-17 07:22:00,31.0,26.5,29.92,ENE,58,7.0,14.0,83,0.00,,---,0.00,VWS V14.01,2013-03-17 12:22:00,
2013-03-17 07:24:00,31.0,26.5,29.92,NE,53,11.0,14.0,83,0.00,,---,0.00,VWS V14.01,2013-03-17 12:24:00,
2013-03-17 07:25:00,31.0,26.5,29.92,NE,49,10.0,14.0,83,0.00,,---,0.00,VWS V14.01,2013-03-17 12:25:00,
2013-03-17 07:27:00,31.2,26.6,29.92,NE,56,10.0,14.0,83,0.00,,---,0.00,VWS V14.01,2013-03-17 12:27:00,
2013-03-17 07:29:00,31.2,26.6,29.92,NE,44,5.0,14.0,83,0.00,,---,0.00,VWS V14.01,2013-03-17 12:29:00,
2013-03-17 07:30:00,31.2,26.6,29.93,NE,40,7.0,7.0,83,0.00,,---,0.00,VWS V14.01,2013-03-17 12:30:00,
2013-03-17 07:32:00,31.2,26.6,29.93,NE,50,10.0,10.0,83,0.00,,---,0.00,VWS V14.01,2013-03-17 12:32:00,
2013-03-17 07:34:00,31.2,26.6,29.93,NE,51,9.0,12.0,83,0.00,,---,0.00,VWS V14.01,2013-03-17 12:34:00,
2013-03-17 07:35:00,31.2,26.6,29.93,NE,55,12.0,14.0,83,0.00,,---,0.00,VWS V14.01,2013-03-17 12:35:00,
2013-03-17 07:37:00,31.2,26.6,29.93,ENE,61,10.0,14.0,83,0.00,,---,0.00,VWS V14.01,2013-03-17 12:37:00,
2013-03-17 07:39:00,31.2,26.6,29.93,NE,51,9.0,14.0,83,0.00,,---,0.00,VWS V14.01,2013-03-17 12:39:00,
2013-03-17 07:40:00,31.2,26.6,29.93,NE,46,11.0,12.0,83,0.00,,---,0.00,VWS V14.01,2013-03-17 12:40:00,
2013-03-17 07:42:00,31.2,26.6,29.93,NE,55,11.0,13.0,83,0.00,,---,0.00,VWS V14.01,2013-03-17 12:42:00,
2013-03-17 07:43:00,31.2,26.6,29.93,ENE,60,12.0,13.0,83,0.00,,---,0.00,VWS V14.01,2013-03-17 12:43:00,
2013-03-17 07:44:00,31.2,26.6,29.93,ENE,61,11.0,13.0,83,0.00,,---,0.00,VWS V14.01,2013-03-17 12:44:00,
2013-03-17 07:45:00,31.2,26.6,29.93,ENE,61,12.0,14.0,83,0.00,,---,0.00,VWS V14.01,2013-03-17 12:45:00,
2013-03-17 07:47:00,31.2,26.6,29.93,ENE,63,9.0,14.0,83,0.00,,---,0.00,VWS V14.01,2013-03-17 12:47:00,
2013-03-17 07:48:00,31.2,26.6,29.93,ENE,61,11.0,14.0,83,0.00,,---,0.00,VWS V14.01,2013-03-17 12:48:00,
2013-03-17 07:49:00,31.2,26.6,29.93,ENE,60,11.0,14.0,83,0.00,,---,0.00,VWS V14.01,2013-03-17 12:49:00,
2013-03-17 07:50:00,31.2,26.6,29.93,ENE,60,7.0,8.0,83,0.00,,---,0.00,VWS V14.01,2013-03-17 12:50:00,
2013-03-17 07:52:00,31.2,26.6,29.93,NE,55,11.0,11.0,83,0.00,,---,0.00,VWS V14.01,2013-03-17 12:52:00,
2013-03-17 07:53:00,31.2,26.6,29.93,NE,53,11.0,11.0,83,0.00,,---,0.00,VWS V14.01,2013-03-17 12:53:00,
2013-03-17 07:54:00,31.2,26.6,29.93,NE,52,9.0,11.0,83,0.00,,---,0.00,VWS V14.01,2013-03-17 12:54:00,
2013-03-17 07:55:00,31.2,26.9,29.93,NE,53,10.0,11.0,84,0.00,,---,0.00,VWS V14.01,2013-03-17 12:55:00,
2013-03-17 07:57:00,31.2,26.9,29.93,NE,49,10.0,11.0,84,0.00,,---,0.00,VWS V14.01,2013-03-17 12:57:00,
2013-03-17 07:58:00,31.2,26.9,29.93,NE,49,9.0,11.0,84,0.00,,---,0.00,VWS V14.01,2013-03-17 12:58:00,
2013-03-17 07:59:00,31.2,26.9,29.92,NE,53,11.0,11.0,84,0.00,,---,0.00,VWS V14.01,2013-03-17 12:59:00,
2013-03-17 08:00:00,31.2,26.9,29.92,NE,53,12.0,12.0,84,0.00,,---,0.00,VWS V14.01,2013-03-17 13:00:00,
2013-03-17 08:02:00,31.2,26.9,29.92,NE,49,9.0,12.0,84,0.00,,---,0.00,VWS V14.01,2013-03-17 13:02:00,
2013-03-17 08:03:00,31.2,26.9,29.92,NE,49,9.0,12.0,84,0.00,,---,0.00,VWS V14.01,2013-03-17 13:03:00,
2013-03-17 08:04:00,31.2,26.9,29.92,NE,49,7.0,12.0,84,0.00,,---,0.00,VWS V14.01,2013-03-17 13:04:00,
2013-03-17 08:05:00,31.2,26.9,29.92,NE,49,5.0,12.0,84,0.00,,---,0.00,VWS V14.01,2013-03-17 13:05:00,
2013-03-17 08:07:00,31.2,26.9,29.92,NE,50,6.0,12.0,84,0.00,,---,0.00,VWS V14.01,2013-03-17 13:07:00,
2013-03-17 08:08:00,31.2,26.9,29.92,ENE,57,11.0,12.0,84,0.00,,---,0.00,VWS V14.01,2013-03-17 13:08:00,
2013-03-17 08:09:00,31.2,26.9,29.92,ENE,57,7.0,12.0,84,0.00,,---,0.00,VWS V14.01,2013-03-17 13:09:00,
2013-03-17 08:10:00,31.3,27.0,29.92,NE,42,3.0,6.0,84,0.00,,---,0.00,VWS V14.01,2013-03-17 13:10:00,
2013-03-17 08:12:00,31.3,27.0,29.92,NE,45,10.0,13.0,84,0.00,,---,0.00,VWS V14.01,2013-03-17 13:12:00,
2013-03-17 08:13:00,31.3,27.0,29.92,NE,45,6.0,13.0,84,0.00,,---,0.00,VWS V14.01,2013-03-17 13:13:00,
2013-03-17 08:14:00,31.2,26.9,29.93,NE,49,6.0,13.0,84,0.00,,---,0.00,VWS V14.01,2013-03-17 13:14:00,
2013-03-17 08:15:00,31.3,27.0,29.93,NE,48,3.0,13.0,84,0.00,,---,0.00,VWS V14.01,2013-03-17 13:15:00,
2013-03-17 08:17:00,31.3,27.0,29.93,NE,52,6.0,13.0,84,0.00,,---,0.00,VWS V14.01,2013-03-17 13:17:00,
2013-03-17 08:18:00,31.3,27.0,29.93,NE,52,6.0,13.0,84,0.00,,---,0.00,VWS V14.01,2013-03-17 13:18:00,
2013-03-17 08:19:00,31.3,27.0,29.93,NE,43,5.0,13.0,84,0.00,,---,0.00,VWS V14.01,2013-03-17 13:19:00,
2013-03-17 08:20:00,31.3,27.0,29.93,NE,43,4.0,13.0,84,0.00,,---,0.00,VWS V14.01,2013-03-17 13:20:00,
2013-03-17 08:21:00,31.3,27.0,29.93,NE,43,3.0,4.0,84,0.00,,---,0.00,VWS V14.01,2013-03-17 13:21:00,
2013-03-17 08:23:00,31.3,27.0,29.93,NE,46,3.0,6.0,84,0.00,,---,0.00,VWS V14.01,2013-03-17 13:23:00,
2013-03-17 08:24:00,31.3,27.0,29.93,NE,44,8.0,9.0,84,0.00,,---,0.00,VWS V14.01,2013-03-17 13:24:00,
2013-03-17 08:26:00,31.3,27.0,29.93,NE,48,4.0,9.0,84,0.00,,---,0.00,VWS V14.01,2013-03-17 13:26:00,
2013-03-17 08:28:00,31.3,27.0,29.93,NE,47,9.0,10.0,84,0.00,,---,0.00,VWS V14.01,2013-03-17 13:28:00,
2013-03-17 08:29:00,31.3,26.8,29.93,NE,42,11.0,13.0,83,0.00,,---,0.00,VWS V14.01,2013-03-17 13:29:00,
2013-03-17 08:30:00,31.3,27.0,29.93,NE,42,7.0,13.0,84,0.00,,---,0.00,VWS V14.01,2013-03-17 13:30:00,
2013-03-17 08:31:00,31.3,27.0,29.93,NE,50,10.0,11.0,84,0.00,,---,0.00,VWS V14.01,2013-03-17 13:31:00,
2013-03-17 08:33:00,31.3,26.8,29.93,ENE,57,10.0,12.0,83,0.00,,---,0.00,VWS V14.01,2013-03-17 13:33:00,
2013-03-17 08:34:00,31.2,26.6,29.93,NE,46,10.0,13.0,83,0.00,,---,0.00,VWS V14.01,2013-03-17 13:34:00,
2013-03-17 08:36:00,31.3,26.8,29.93,NE,56,10.0,13.0,83,0.00,,---,0.00,VWS V14.01,2013-03-17 13:36:00,
2013-03-17 08:38:00,31.3,26.8,29.93,NE,56,5.0,13.0,83,0.00,,---,0.00,VWS V14.01,2013-03-17 13:38:00,
2013-03-17 08:39:00,31.3,27.0,29.93,NE,40,10.0,13.0,84,0.00,,---,0.00,VWS V14.01,2013-03-17 13:39:00,
2013-03-17 08:40:00,31.3,27.0,29.93,NE,42,7.0,13.0,84,0.00,,---,0.00,VWS V14.01,2013-03-17 13:40:00,
2013-03-17 08:42:00,31.3,26.8,29.93,NE,44,12.0,14.0,83,0.00,,---,0.00,VWS V14.01,2013-03-17 13:42:00,
2013-03-17 08:43:00,31.3,26.8,29.93,NE,46,7.0,14.0,83,0.00,,---,0.00,VWS V14.01,2013-03-17 13:43:00,
2013-03-17 08:44:00,31.3,26.8,29.93,NE,43,14.0,15.0,83,0.00,,---,0.00,VWS V14.01,2013-03-17 13:44:00,
2013-03-17 08:47:00,31.2,26.6,29.93,NE,44,12.0,15.0,83,0.00,,---,0.00,VWS V14.01,2013-03-17 13:47:00,
2013-03-17 08:48:00,31.2,26.6,29.93,NE,42,11.0,15.0,83,0.00,,---,0.00,VWS V14.01,2013-03-17 13:48:00,
2013-03-17 08:49:00,31.2,26.6,29.93,NE,47,10.0,15.0,83,0.00,,---,0.00,VWS V14.01,2013-03-17 13:49:00,
2013-03-17 08:50:00,31.2,26.6,29.93,NE,47,11.0,15.0,83,0.00,,---,0.00,VWS V14.01,2013-03-17 13:50:00,
2013-03-17 08:52:00,31.3,26.8,29.93,NE,43,11.0,14.0,83,0.00,,---,0.00,VWS V14.01,2013-03-17 13:52:00,
2013-03-17 08:53:00,31.3,26.8,29.93,NE,47,9.0,14.0,83,0.00,,---,0.00,VWS V14.01,2013-03-17 13:53:00,
2013-03-17 08:54:00,31.3,26.8,29.93,NE,51,10.0,14.0,83,0.00,,---,0.00,VWS V14.01,2013-03-17 13:54:00,
2013-03-17 08:57:00,31.3,26.8,29.93,NE,55,9.0,15.0,83,0.00,,---,0.00,VWS V14.01,2013-03-17 13:57:00,
2013-03-17 08:58:00,31.3,26.8,29.93,NE,51,6.0,15.0,83,0.00,,---,0.00,VWS V14.01,2013-03-17 13:58:00,
2013-03-17 08:59:00,31.3,26.8,29.93,NE,53,10.0,15.0,83,0.00,,---,0.00,VWS V14.01,2013-03-17 13:59:00,
2013-03-17 09:00:00,31.3,26.8,29.93,NE,55,10.0,15.0,83,0.00,,---,0.00,VWS V14.01,2013-03-17 14:00:00,
2013-03-17 09:02:00,31.3,26.8,29.93,NE,46,9.0,12.0,83,0.00,,---,0.00,VWS V14.01,2013-03-17 14:02:00,
2013-03-17 09:03:00,31.3,26.8,29.93,NE,46,11.0,12.0,83,0.00,,---,0.00,VWS V14.01,2013-03-17 14:03:00,
2013-03-17 09:04:00,31.3,26.8,29.93,NE,46,11.0,12.0,83,0.00,,---,0.00,VWS V14.01,2013-03-17 14:04:00,
2013-03-17 09:07:00,31.3,26.8,29.93,NE,49,7.0,14.0,83,0.00,,---,0.00,VWS V14.01,2013-03-17 14:07:00,
2013-03-17 09:08:00,31.3,26.8,29.93,NE,55,10.0,14.0,83,0.00,,---,0.00,VWS V14.01,2013-03-17 14:08:00,
2013-03-17 09:09:00,31.3,26.8,29.93,NE,51,10.0,14.0,83,0.00,,---,0.00,VWS V14.01,2013-03-17 14:09:00,
2013-03-17 09:10:00,31.3,26.8,29.93,NE,52,10.0,14.0,83,0.00,,---,0.00,VWS V14.01,2013-03-17 14:10:00,
2013-03-17 09:12:00,31.5,26.9,29.93,NE,53,11.0,13.0,83,0.00,,---,0.00,VWS V14.01,2013-03-17 14:12:00,
2013-03-17 09:13:00,31.5,26.9,29.93,NE,43,11.0,13.0,83,0.00,,---,0.00,VWS V14.01,2013-03-17 14:13:00,
2013-03-17 09:14:00,31.5,26.9,29.93,NE,47,7.0,14.0,83,0.00,,---,0.00,VWS V14.01,2013-03-17 14:14:00,
2013-03-17 09:17:00,31.6,27.0,29.92,NE,44,0.0,14.0,83,0.00,,---,0.00,VWS V14.01,2013-03-17 14:17:00,
2013-03-17 09:18:00,31.6,27.0,29.92,NE,40,0.0,14.0,83,0.00,,---,0.00,VWS V14.01,2013-03-17 14:18:00,
2013-03-17 09:19:00,31.6,27.0,29.92,NE,40,2.0,14.0,83,0.00,,---,0.00,VWS V14.01,2013-03-17 14:19:00,
2013-03-17 09:20:00,31.6,27.0,29.92,NE,44,9.0,14.0,83,0.00,,---,0.00,VWS V14.01,2013-03-17 14:20:00,
2013-03-17 09:22:00,31.6,27.0,29.92,NE,55,11.0,13.0,83,0.00,,---,0.00,VWS V14.01,2013-03-17 14:22:00,
2013-03-17 09:23:00,31.6,27.0,29.92,ENE,58,13.0,13.0,83,0.00,,---,0.00,VWS V14.01,2013-03-17 14:23:00,
2013-03-17 09:24:00,31.6,27.0,29.92,NE,49,7.0,14.0,83,0.00,,---,0.00,VWS V14.01,2013-03-17 14:24:00,
2013-03-17 09:25:00,31.6,27.0,29.92,NE,44,7.0,14.0,83,0.00,,---,0.00,VWS V14.01,2013-03-17 14:25:00,
2013-03-17 09:27:00,31.5,26.9,29.92,NE,48,9.0,15.0,83,0.00,,---,0.00,VWS V14.01,2013-03-17 14:27:00,
2013-03-17 09:28:00,31.6,27.0,29.92,NE,49,14.0,15.0,83,0.00,,---,0.00,VWS V14.01,2013-03-17 14:28:00,
2013-03-17 09:29:00,31.6,27.0,29.91,NE,55,11.0,15.0,83,0.00,,---,0.00,VWS V14.01,2013-03-17 14:29:00,
2013-03-17 09:30:00,31.6,27.0,29.91,ENE,71,11.0,15.0,83,0.00,,---,0.00,VWS V14.01,2013-03-17 14:30:00,
2013-03-17 09:32:00,31.8,26.9,29.91,ENE,61,11.0,14.0,82,0.00,,---,0.00,VWS V14.01,2013-03-17 14:32:00,
2013-03-17 09:33:00,31.8,26.9,29.91,ENE,58,12.0,14.0,82,0.00,,---,0.00,VWS V14.01,2013-03-17 14:33:00,
2013-03-17 09:34:00,31.8,26.9,29.91,NE,53,11.0,16.0,82,0.00,,---,0.00,VWS V14.01,2013-03-17 14:34:00,
2013-03-17 09:35:00,31.6,26.8,29.91,NE,42,14.0,16.0,82,0.00,,---,0.00,VWS V14.01,2013-03-17 14:35:00,
2013-03-17 09:37:00,31.6,26.8,29.91,NE,43,11.0,16.0,82,0.00,,---,0.00,VWS V14.01,2013-03-17 14:37:00,
2013-03-17 09:38:00,31.6,26.8,29.91,NE,43,10.0,16.0,82,0.00,,---,0.00,VWS V14.01,2013-03-17 14:38:00,
2013-03-17 09:39:00,31.6,26.8,29.91,NE,38,6.0,16.0,82,0.00,,---,0.00,VWS V14.01,2013-03-17 14:39:00,
2013-03-17 09:40:00,31.5,26.6,29.91,NE,38,11.0,11.0,82,0.00,,---,0.00,VWS V14.01,2013-03-17 14:40:00,
2013-03-17 09:42:00,31.5,26.6,29.91,ENE,57,13.0,14.0,82,0.00,,---,0.00,VWS V14.01,2013-03-17 14:42:00,
2013-03-17 09:43:00,31.5,26.6,29.91,ENE,57,11.0,14.0,82,0.00,,---,0.00,VWS V14.01,2013-03-17 14:43:00,
2013-03-17 09:44:00,31.5,26.6,29.92,NE,48,10.0,14.0,82,0.00,,---,0.00,VWS V14.01,2013-03-17 14:44:00,
2013-03-17 09:45:00,31.5,26.6,29.92,NE,54,11.0,14.0,82,0.00,,---,0.00,VWS V14.01,2013-03-17 14:45:00,
2013-03-17 09:48:00,31.6,26.8,29.92,NE,52,13.0,14.0,82,0.00,,---,0.00,VWS V14.01,2013-03-17 14:48:00,
2013-03-17 09:49:00,31.6,26.8,29.92,ENE,58,12.0,14.0,82,0.00,,---,0.00,VWS V14.01,2013-03-17 14:49:00,
2013-03-17 09:50:00,31.6,26.8,29.92,NE,46,14.0,15.0,82,0.00,,---,0.00,VWS V14.01,2013-03-17 14:50:00,
2013-03-17 09:53:00,31.8,26.9,29.92,ENE,67,13.0,15.0,82,0.00,,---,0.00,VWS V14.01,2013-03-17 14:53:00,
2013-03-17 09:54:00,31.6,26.8,29.92,ENE,59,11.0,15.0,82,0.00,,---,0.00,VWS V14.01,2013-03-17 14:54:00,
2013-03-17 09:55:00,31.8,26.9,29.92,NE,50,10.0,15.0,82,0.00,,---,0.00,VWS V14.01,2013-03-17 14:55:00,
2013-03-17 09:58:00,31.8,26.9,29.92,NE,53,17.0,18.0,82,0.00,,---,0.00,VWS V14.01,2013-03-17 14:58:00,
2013-03-17 09:59:00,31.6,26.8,29.92,ENE,57,10.0,18.0,82,0.00,,---,0.00,VWS V14.01,2013-03-17 14:59:00,
2013-03-17 10:00:00,31.8,26.9,29.92,ENE,57,12.0,12.0,82,0.00,,---,0.00,VWS V14.01,2013-03-17 15:00:00,
2013-03-17 10:03:00,31.8,26.9,29.92,ENE,67,11.0,15.0,82,0.00,,---,0.00,VWS V14.01,2013-03-17 15:03:00,
2013-03-17 10:04:00,31.8,26.9,29.92,ENE,58,14.0,16.0,82,0.00,,---,0.00,VWS V14.01,2013-03-17 15:04:00,
2013-03-17 10:05:00,31.8,26.6,29.92,ENE,57,11.0,16.0,81,0.00,,---,0.00,VWS V14.01,2013-03-17 15:05:00,
2013-03-17 10:08:00,31.8,26.6,29.92,NE,39,5.0,16.0,81,0.00,,---,0.00,VWS V14.01,2013-03-17 15:08:00,
2013-03-17 10:09:00,31.8,26.9,29.92,NE,49,12.0,16.0,82,0.00,,---,0.00,VWS V14.01,2013-03-17 15:09:00,
2013-03-17 10:10:00,31.8,26.9,29.92,NE,53,13.0,14.0,82,0.00,,---,0.00,VWS V14.01,2013-03-17 15:10:00,
2013-03-17 10:13:00,31.8,26.6,29.92,NE,43,11.0,14.0,81,0.00,,---,0.00,VWS V14.01,2013-03-17 15:13:00,
2013-03-17 10:14:00,31.8,26.6,29.92,NE,42,11.0,15.0,81,0.00,,---,0.00,VWS V14.01,2013-03-17 15:14:00,
2013-03-17 10:15:00,31.8,26.6,29.92,NE,46,8.0,15.0,81,0.00,,---,0.00,VWS V14.01,2013-03-17 15:15:00,
2013-03-17 10:18:00,31.8,26.6,29.92,NE,55,12.0,15.0,81,0.00,,---,0.00,VWS V14.01,2013-03-17 15:18:00,
2013-03-17 10:19:00,31.8,26.6,29.92,NE,55,11.0,15.0,81,0.00,,---,0.00,VWS V14.01,2013-03-17 15:19:00,
2013-03-17 10:20:00,31.9,26.7,29.92,NE,51,10.0,12.0,81,0.00,,---,0.00,VWS V14.01,2013-03-17 15:20:00,
2013-03-17 10:23:00,31.9,26.7,29.92,NE,47,15.0,15.0,81,0.00,,---,0.00,VWS V14.01,2013-03-17 15:23:00,
2013-03-17 10:24:00,31.9,26.7,29.92,NE,53,10.0,15.0,81,0.00,,---,0.00,VWS V14.01,2013-03-17 15:24:00,
2013-03-17 10:25:00,31.9,26.7,29.92,ENE,64,12.0,15.0,81,0.00,,---,0.00,VWS V14.01,2013-03-17 15:25:00,
2013-03-17 10:28:00,32.2,27.0,29.92,NE,48,10.0,15.0,81,0.00,,---,0.00,VWS V14.01,2013-03-17 15:28:00,
2013-03-17 10:30:00,32.2,27.0,29.92,NE,53,12.0,15.0,81,0.00,,---,0.00,VWS V14.01,2013-03-17 15:30:00,
2013-03-17 10:33:00,32.2,27.0,29.92,ENE,67,11.0,15.0,81,0.00,,---,0.00,VWS V14.01,2013-03-17 15:33:00,
2013-03-17 10:35:00,32.1,26.9,29.92,ENE,61,11.0,15.0,81,0.00,,---,0.00,VWS V14.01,2013-03-17 15:35:00,
2013-03-17 10:38:00,32.2,27.0,29.92,ENE,64,10.0,15.0,81,0.00,,---,0.00,VWS V14.01,2013-03-17 15:38:00,
2013-03-17 10:39:00,32.2,27.0,29.92,NNE,30,9.0,15.0,81,0.00,,---,0.00,VWS V14.01,2013-03-17 15:39:00,
2013-03-17 10:40:00,32.2,27.0,29.92,NE,55,10.0,15.0,81,0.00,,---,0.00,VWS V14.01,2013-03-17 15:40:00,
2013-03-17 10:43:00,32.2,26.7,29.92,ENE,65,10.0,15.0,80,0.00,,---,0.00,VWS V14.01,2013-03-17 15:43:00,
2013-03-17 10:44:00,32.2,26.7,29.92,ENE,61,11.0,15.0,80,0.00,,---,0.00,VWS V14.01,2013-03-17 15:44:00,
2013-03-17 10:45:00,32.2,26.7,29.90,ENE,63,11.0,15.0,80,0.00,,---,0.00,VWS V14.01,2013-03-17 15:45:00,
2013-03-17 10:48:00,32.5,27.3,29.90,NE,43,11.0,15.0,81,0.00,,---,0.00,VWS V14.01,2013-03-17 15:48:00,
2013-03-17 10:49:00,32.5,27.3,29.90,NE,45,10.0,15.0,81,0.00,,---,0.00,VWS V14.01,2013-03-17 15:49:00,
2013-03-17 10:50:00,32.5,27.3,29.90,NE,43,7.0,15.0,81,0.00,,---,0.00,VWS V14.01,2013-03-17 15:50:00,
2013-03-17 10:53:00,32.7,27.2,29.90,NE,49,13.0,16.0,80,0.00,,---,0.00,VWS V14.01,2013-03-17 15:53:00,
2013-03-17 10:54:00,32.7,27.2,29.90,NE,49,13.0,16.0,80,0.00,,---,0.00,VWS V14.01,2013-03-17 15:54:00,
2013-03-17 10:55:00,32.7,27.2,29.90,NE,49,13.0,16.0,80,0.00,,---,0.00,VWS V14.01,2013-03-17 15:55:00,
2013-03-17 10:58:00,32.8,27.3,29.90,ENE,58,13.0,16.0,80,0.00,,---,0.00,VWS V14.01,2013-03-17 15:58:00,
2013-03-17 10:59:00,32.8,27.3,29.90,NE,55,15.0,16.0,80,0.00,,---,0.00,VWS V14.01,2013-03-17 15:59:00,
2013-03-17 11:00:00,32.8,27.3,29.90,ENE,69,10.0,16.0,80,0.00,,---,0.00,VWS V14.01,2013-03-17 16:00:00,
2013-03-17 11:03:00,33.1,27.6,29.90,NE,53,12.0,17.0,80,0.00,,---,0.00,VWS V14.01,2013-03-17 16:03:00,
2013-03-17 11:04:00,33.1,27.6,29.90,NE,53,12.0,17.0,80,0.00,,---,0.00,VWS V14.01,2013-03-17 16:04:00,
2013-03-17 11:05:00,33.1,27.6,29.90,ENE,59,13.0,17.0,80,0.00,,---,0.00,VWS V14.01,2013-03-17 16:05:00,
2013-03-17 11:09:00,32.9,27.1,29.90,NE,50,14.0,17.0,79,0.00,,---,0.00,VWS V14.01,2013-03-17 16:09:00,
2013-03-17 11:10:00,32.9,27.1,29.90,ENE,62,10.0,11.0,79,0.00,,---,0.00,VWS V14.01,2013-03-17 16:10:00,
2013-03-17 11:13:00,32.9,27.1,29.90,ENE,58,15.0,18.0,79,0.00,,---,0.00,VWS V14.01,2013-03-17 16:13:00,
2013-03-17 11:14:00,32.9,27.1,29.90,ENE,59,14.0,18.0,79,0.00,,---,0.00,VWS V14.01,2013-03-17 16:14:00,
2013-03-17 11:15:00,32.9,27.1,29.89,NE,55,16.0,18.0,79,0.00,,---,0.00,VWS V14.01,2013-03-17 16:15:00,
2013-03-17 11:19:00,33.1,27.3,29.89,NE,54,15.0,18.0,79,0.00,,---,0.00,VWS V14.01,2013-03-17 16:19:00,
2013-03-17 11:20:00,33.1,27.3,29.89,ENE,61,16.0,16.0,79,0.00,,---,0.00,VWS V14.01,2013-03-17 16:20:00,
2013-03-17 11:24:00,33.2,27.4,29.89,NE,55,11.0,16.0,79,0.00,,---,0.00,VWS V14.01,2013-03-17 16:24:00,
2013-03-17 11:25:00,33.1,27.3,29.89,NE,50,12.0,16.0,79,0.00,,---,0.00,VWS V14.01,2013-03-17 16:25:00,
2013-03-17 11:29:00,33.2,27.1,29.88,ENE,65,11.0,16.0,78,0.00,,---,0.00,VWS V14.01,2013-03-17 16:29:00,
2013-03-17 11:30:00,33.2,27.4,29.88,NE,37,10.0,13.0,79,0.00,,---,0.00,VWS V14.01,2013-03-17 16:30:00,
2013-03-17 11:34:00,33.2,27.1,29.88,NE,53,10.0,16.0,78,0.00,,---,0.00,VWS V14.01,2013-03-17 16:34:00,
2013-03-17 11:35:00,33.1,27.0,29.88,ENE,59,9.0,16.0,78,0.00,,---,0.00,VWS V14.01,2013-03-17 16:35:00,
2013-03-17 11:36:00,33.1,27.0,29.88,ENE,62,7.0,16.0,78,0.00,,---,0.00,VWS V14.01,2013-03-17 16:36:00,
2013-03-17 11:39:00,33.2,27.1,29.88,ENE,65,12.0,16.0,78,0.00,,---,0.00,VWS V14.01,2013-03-17 16:39:00,
2013-03-17 11:40:00,33.2,27.1,29.88,NE,53,10.0,11.0,78,0.00,,---,0.00,VWS V14.01,2013-03-17 16:40:00,
2013-03-17 11:41:00,33.2,27.1,29.88,NE,49,12.0,13.0,78,0.00,,---,0.00,VWS V14.01,2013-03-17 16:41:00,
2013-03-17 11:44:00,33.5,27.4,29.88,ENE,65,7.0,16.0,78,0.00,,---,0.00,VWS V14.01,2013-03-17 16:44:00,
2013-03-17 11:45:00,33.4,27.3,29.88,NE,55,13.0,16.0,78,0.00,,---,0.00,VWS V14.01,2013-03-17 16:45:00,
2013-03-17 11:46:00,33.4,27.3,29.88,NE,55,10.0,16.0,78,0.00,,---,0.00,VWS V14.01,2013-03-17 16:46:00,
2013-03-17 11:49:00,33.5,27.4,29.88,NE,52,13.0,16.0,78,0.00,,---,0.00,VWS V14.01,2013-03-17 16:49:00,
2013-03-17 11:50:00,33.5,27.4,29.88,ENE,62,12.0,14.0,78,0.00,,---,0.00,VWS V14.01,2013-03-17 16:50:00,
2013-03-17 11:51:00,33.5,27.4,29.88,ENE,67,10.0,14.0,78,0.00,,---,0.00,VWS V14.01,2013-03-17 16:51:00,
2013-03-17 11:54:00,33.8,27.7,29.88,ENE,58,13.0,14.0,78,0.00,,---,0.00,VWS V14.01,2013-03-17 16:54:00,
2013-03-17 11:55:00,33.8,27.0,29.88,NE,50,12.0,15.0,76,0.00,,---,0.00,VWS V14.01,2013-03-17 16:55:00,
2013-03-17 11:57:00,33.7,27.6,29.88,ENE,61,6.0,15.0,78,0.00,,---,0.00,VWS V14.01,2013-03-17 16:57:00,
2013-03-17 11:59:00,33.8,27.7,29.87,NE,55,15.0,15.0,78,0.00,,---,0.00,VWS V14.01,2013-03-17 16:59:00,
2013-03-17 12:00:00,33.8,27.7,29.87,NE,53,8.0,10.0,78,0.00,,---,0.00,VWS V14.01,2013-03-17 17:00:00,
2013-03-17 12:02:00,33.8,27.7,29.87,NE,53,13.0,16.0,78,0.00,,---,0.00,VWS V14.01,2013-03-17 17:02:00,
2013-03-17 12:04:00,33.8,27.7,29.87,ENE,65,7.0,16.0,78,0.00,,---,0.00,VWS V14.01,2013-03-17 17:04:00,
2013-03-17 12:05:00,34.0,27.6,29.87,NE,52,12.0,16.0,77,0.00,,---,0.00,VWS V14.01,2013-03-17 17:05:00,
2013-03-17 12:07:00,34.1,28.0,29.87,ENE,58,5.0,16.0,78,0.00,,---,0.00,VWS V14.01,2013-03-17 17:07:00,
2013-03-17 12:09:00,34.6,28.1,29.87,ENE,57,12.0,16.0,77,0.00,,---,0.00,VWS V14.01,2013-03-17 17:09:00,
2013-03-17 12:10:00,34.6,28.1,29.87,ENE,73,12.0,13.0,77,0.00,,---,0.00,VWS V14.01,2013-03-17 17:10:00,
2013-03-17 12:12:00,34.7,28.2,29.87,NE,54,15.0,15.0,77,0.00,,---,0.00,VWS V14.01,2013-03-17 17:12:00,
2013-03-17 12:14:00,34.9,28.4,29.86,NE,51,15.0,16.0,77,0.00,,---,0.00,VWS V14.01,2013-03-17 17:14:00,
2013-03-17 12:15:00,34.7,27.9,29.86,ENE,71,10.0,16.0,76,0.00,,---,0.00,VWS V14.01,2013-03-17 17:15:00,
2013-03-17 12:17:00,34.9,28.1,29.86,ENE,67,9.0,16.0,76,0.00,,---,0.00,VWS V14.01,2013-03-17 17:17:00,
2013-03-17 12:19:00,34.7,27.9,29.86,ENE,63,6.0,16.0,76,0.00,,---,0.00,VWS V14.01,2013-03-17 17:19:00,
2013-03-17 12:20:00,34.7,27.9,29.86,ENE,58,6.0,16.0,76,0.00,,---,0.00,VWS V14.01,2013-03-17 17:20:00,
2013-03-17 12:21:00,34.9,28.1,29.86,NE,47,12.0,14.0,76,0.00,,---,0.00,VWS V14.01,2013-03-17 17:21:00,
2013-03-17 12:22:00,35.0,28.5,29.86,ENE,65,6.0,14.0,77,0.00,,---,0.00,VWS V14.01,2013-03-17 17:22:00,
2013-03-17 12:24:00,35.2,28.4,29.86,ENE,72,7.0,14.0,76,0.00,,---,0.00,VWS V14.01,2013-03-17 17:24:00,
2013-03-17 12:25:00,35.2,28.4,29.86,ENE,73,10.0,14.0,76,0.00,,---,0.00,VWS V14.01,2013-03-17 17:25:00,
2013-03-17 12:26:00,35.3,28.5,29.86,ENE,68,14.0,16.0,76,0.00,,---,0.00,VWS V14.01,2013-03-17 17:26:00,
2013-03-17 12:27:00,35.5,28.7,29.86,ENE,77,12.0,16.0,76,0.00,,---,0.00,VWS V14.01,2013-03-17 17:27:00,
2013-03-17 12:29:00,35.6,28.5,29.84,East,92,10.0,16.0,75,0.00,,---,0.00,VWS V14.01,2013-03-17 17:29:00,
2013-03-17 12:30:00,35.6,28.5,29.84,East,96,9.0,16.0,75,0.00,,---,0.00,VWS V14.01,2013-03-17 17:30:00,
2013-03-17 12:31:00,35.5,28.4,29.84,ENE,63,11.0,11.0,75,0.00,,---,0.00,VWS V14.01,2013-03-17 17:31:00,
2013-03-17 12:32:00,35.5,28.4,29.84,East,80,8.0,13.0,75,0.00,,---,0.00,VWS V14.01,2013-03-17 17:32:00,
2013-03-17 12:34:00,35.8,28.7,29.84,ENE,67,8.0,20.0,75,0.00,,---,0.00,VWS V14.01,2013-03-17 17:34:00,
2013-03-17 12:35:00,35.8,28.7,29.84,ENE,67,8.0,20.0,75,0.00,,---,0.00,VWS V14.01,2013-03-17 17:35:00,
2013-03-17 12:36:00,35.9,28.8,29.84,ENE,72,13.0,20.0,75,0.00,,---,0.00,VWS V14.01,2013-03-17 17:36:00,
2013-03-17 12:37:00,35.9,28.8,29.84,East,82,11.0,20.0,75,0.00,,---,0.00,VWS V14.01,2013-03-17 17:37:00,
2013-03-17 12:39:00,36.0,28.5,29.84,East,98,10.0,20.0,74,0.00,,---,0.00,VWS V14.01,2013-03-17 17:39:00,
2013-03-17 12:40:00,36.0,28.5,29.84,East,97,9.0,20.0,74,0.00,,---,0.00,VWS V14.01,2013-03-17 17:40:00,
2013-03-17 12:41:00,36.3,29.1,29.84,ENE,59,12.0,13.0,75,0.00,,---,0.00,VWS V14.01,2013-03-17 17:41:00,
2013-03-17 12:42:00,36.3,28.5,29.84,ENE,57,9.0,13.0,73,0.00,,---,0.00,VWS V14.01,2013-03-17 17:42:00,
2013-03-17 12:45:00,36.2,28.7,29.83,ENE,72,10.0,13.0,74,0.00,,---,0.00,VWS V14.01,2013-03-17 17:45:00,
2013-03-17 12:46:00,36.2,28.4,29.83,East,86,10.0,14.0,73,0.00,,---,0.00,VWS V14.01,2013-03-17 17:46:00,
2013-03-17 12:47:00,36.2,28.7,29.83,East,92,7.0,14.0,74,0.00,,---,0.00,VWS V14.01,2013-03-17 17:47:00,
2013-03-17 12:50:00,36.3,28.8,29.83,East,91,6.0,14.0,74,0.00,,---,0.00,VWS V14.01,2013-03-17 17:50:00,
2013-03-17 12:52:00,36.3,28.5,29.83,ENE,65,9.0,13.0,73,0.00,,---,0.00,VWS V14.01,2013-03-17 17:52:00,
2013-03-17 12:55:00,36.3,28.8,29.83,ENE,72,12.0,19.0,74,0.00,,---,0.00,VWS V14.01,2013-03-17 17:55:00,
2013-03-17 12:57:00,36.5,28.7,29.83,ENE,57,12.0,19.0,73,0.00,,---,0.00,VWS V14.01,2013-03-17 17:57:00,
2013-03-17 12:58:00,36.5,28.7,29.83,East,84,13.0,19.0,73,0.00,,---,0.00,VWS V14.01,2013-03-17 17:58:00,
2013-03-17 13:00:00,36.5,28.7,29.83,ENE,76,7.0,10.0,73,0.00,,---,0.00,VWS V14.01,2013-03-17 18:00:00,
2013-03-17 13:02:00,36.3,28.5,29.83,East,89,7.0,12.0,73,0.00,,---,0.00,VWS V14.01,2013-03-17 18:02:00,
2013-03-17 13:03:00,36.5,28.7,29.83,East,86,11.0,12.0,73,0.00,,---,0.00,VWS V14.01,2013-03-17 18:03:00,
2013-03-17 13:05:00,36.5,28.7,29.83,East,94,11.0,13.0,73,0.00,,---,0.00,VWS V14.01,2013-03-17 18:05:00,
2013-03-17 13:07:00,36.5,28.7,29.83,East,92,9.0,13.0,73,0.00,,---,0.00,VWS V14.01,2013-03-17 18:07:00,
2013-03-17 13:08:00,36.5,28.7,29.83,East,98,7.0,13.0,73,0.00,,---,0.00,VWS V14.01,2013-03-17 18:08:00,
2013-03-17 13:10:00,36.5,28.7,29.83,ENE,76,9.0,10.0,73,0.00,,---,0.00,VWS V14.01,2013-03-17 18:10:00,
2013-03-17 13:12:00,36.8,29.0,29.83,East,82,9.0,10.0,73,0.00,,---,0.00,VWS V14.01,2013-03-17 18:12:00,
2013-03-17 13:13:00,36.9,29.1,29.83,East,98,10.0,12.0,73,0.00,,---,0.00,VWS V14.01,2013-03-17 18:13:00,
2013-03-17 13:15:00,36.9,29.1,29.82,East,94,8.0,12.0,73,0.00,,---,0.00,VWS V14.01,2013-03-17 18:15:00,
2013-03-17 13:17:00,37.0,29.2,29.82,East,86,10.0,12.0,73,0.00,,---,0.00,VWS V14.01,2013-03-17 18:17:00,
2013-03-17 13:18:00,36.9,29.1,29.82,East,88,7.0,12.0,73,0.00,,---,0.00,VWS V14.01,2013-03-17 18:18:00,
2013-03-17 13:20:00,37.0,28.8,29.82,East,89,9.0,11.0,72,0.00,,---,0.00,VWS V14.01,2013-03-17 18:20:00,
2013-03-17 13:22:00,37.0,29.2,29.82,ENE,59,10.0,12.0,73,0.00,,---,0.00,VWS V14.01,2013-03-17 18:22:00,
2013-03-17 13:23:00,36.9,28.7,29.82,ENE,59,7.0,12.0,72,0.00,,---,0.00,VWS V14.01,2013-03-17 18:23:00,
2013-03-17 13:25:00,37.2,29.4,29.82,ENE,63,2.0,12.0,73,0.00,,---,0.00,VWS V14.01,2013-03-17 18:25:00,
2013-03-17 13:27:00,37.2,29.0,29.82,ENE,65,6.0,13.0,72,0.00,,---,0.00,VWS V14.01,2013-03-17 18:27:00,
2013-03-17 13:28:00,37.2,29.0,29.82,ENE,63,0.0,13.0,72,0.00,,---,0.00,VWS V14.01,2013-03-17 18:28:00,
2013-03-17 13:30:00,37.2,29.0,29.81,East,84,6.0,8.0,72,0.00,,---,0.00,VWS V14.01,2013-03-17 18:30:00,
2013-03-17 13:32:00,37.5,29.6,29.81,East,80,9.0,12.0,73,0.00,,---,0.00,VWS V14.01,2013-03-17 18:32:00,
2013-03-17 13:33:00,37.5,29.3,29.81,East,92,6.0,12.0,72,0.00,,---,0.00,VWS V14.01,2013-03-17 18:33:00,
2013-03-17 13:35:00,37.5,29.3,29.81,ENE,78,5.0,12.0,72,0.00,,---,0.00,VWS V14.01,2013-03-17 18:35:00,
2013-03-17 13:37:00,37.8,29.6,29.81,ENE,65,14.0,15.0,72,0.00,,---,0.00,VWS V14.01,2013-03-17 18:37:00,
2013-03-17 13:38:00,37.8,29.3,29.81,ENE,62,12.0,15.0,71,0.00,,---,0.00,VWS V14.01,2013-03-17 18:38:00,
2013-03-17 13:40:00,37.8,29.6,29.81,ENE,65,12.0,14.0,72,0.00,,---,0.00,VWS V14.01,2013-03-17 18:40:00,
2013-03-17 13:43:00,37.6,29.1,29.81,ENE,65,7.0,14.0,71,0.00,,---,0.00,VWS V14.01,2013-03-17 18:43:00,
2013-03-17 13:45:00,37.6,29.4,29.81,East,91,9.0,14.0,72,0.00,,---,0.00,VWS V14.01,2013-03-17 18:45:00,
2013-03-17 13:48:00,37.9,29.7,29.81,East,92,14.0,14.0,72,0.00,,---,0.00,VWS V14.01,2013-03-17 18:48:00,
2013-03-17 13:50:00,37.9,29.4,29.81,East,83,6.0,9.0,71,0.00,,---,0.00,VWS V14.01,2013-03-17 18:50:00,
2013-03-17 13:53:00,37.9,29.4,29.81,East,92,8.0,10.0,71,0.00,,---,0.00,VWS V14.01,2013-03-17 18:53:00,
2013-03-17 13:55:00,38.0,29.5,29.81,East,98,9.0,13.0,71,0.00,,---,0.00,VWS V14.01,2013-03-17 18:55:00,
2013-03-17 13:58:00,38.3,29.7,29.81,East,85,5.0,13.0,71,0.00,,---,0.00,VWS V14.01,2013-03-17 18:58:00,
2013-03-17 14:00:00,38.5,29.9,29.80,East,84,9.0,11.0,71,0.00,,---,0.00,VWS V14.01,2013-03-17 19:00:00,
2013-03-17 14:01:00,38.5,29.9,29.80,ENE,69,6.0,11.0,71,0.00,,---,0.00,VWS V14.01,2013-03-17 19:01:00,
2013-03-17 14:03:00,38.3,29.4,29.80,East,84,7.0,11.0,70,0.00,,---,0.00,VWS V14.01,2013-03-17 19:03:00,
2013-03-17 14:05:00,38.5,29.9,29.80,East,90,5.0,11.0,71,0.00,,---,0.00,VWS V14.01,2013-03-17 19:05:00,
2013-03-17 14:06:00,38.5,29.9,29.80,ESE,103,9.0,11.0,71,0.00,,---,0.00,VWS V14.01,2013-03-17 19:06:00,
2013-03-17 14:08:00,38.6,30.0,29.80,East,93,7.0,12.0,71,0.00,,---,0.00,VWS V14.01,2013-03-17 19:08:00,
2013-03-17 14:10:00,38.6,29.7,29.80,East,85,7.0,11.0,70,0.00,,---,0.00,VWS V14.01,2013-03-17 19:10:00,
2013-03-17 14:11:00,38.6,29.7,29.80,East,86,7.0,11.0,70,0.00,,---,0.00,VWS V14.01,2013-03-17 19:11:00,
2013-03-17 14:13:00,38.5,29.6,29.80,East,86,5.0,11.0,70,0.00,,---,0.00,VWS V14.01,2013-03-17 19:13:00,
2013-03-17 14:14:00,38.5,29.6,29.80,East,92,9.0,11.0,70,0.00,,---,0.00,VWS V14.01,2013-03-17 19:14:00,
2013-03-17 14:15:00,38.6,29.7,29.79,ESE,109,9.0,12.0,70,0.00,,---,0.00,VWS V14.01,2013-03-17 19:15:00,
2013-03-17 14:16:00,38.6,29.7,29.79,East,98,7.0,12.0,70,0.00,,---,0.00,VWS V14.01,2013-03-17 19:16:00,
2013-03-17 14:18:00,38.8,29.9,29.79,East,82,12.0,13.0,70,0.00,,---,0.00,VWS V14.01,2013-03-17 19:18:00,
2013-03-17 14:19:00,38.6,29.7,29.79,East,86,10.0,13.0,70,0.00,,---,0.00,VWS V14.01,2013-03-17 19:19:00,
2013-03-17 14:20:00,38.5,29.6,29.79,East,82,6.0,13.0,70,0.00,,---,0.00,VWS V14.01,2013-03-17 19:20:00,
2013-03-17 14:21:00,38.3,29.4,29.79,East,94,9.0,10.0,70,0.00,,---,0.00,VWS V14.01,2013-03-17 19:21:00,
2013-03-17 14:23:00,38.3,29.4,29.79,ENE,69,10.0,11.0,70,0.00,,---,0.00,VWS V14.01,2013-03-17 19:23:00,
2013-03-17 14:24:00,38.5,29.6,29.79,ENE,78,9.0,11.0,70,0.00,,---,0.00,VWS V14.01,2013-03-17 19:24:00,
2013-03-17 14:26:00,38.5,29.6,29.79,East,84,6.0,11.0,70,0.00,,---,0.00,VWS V14.01,2013-03-17 19:26:00,
2013-03-17 14:28:00,38.6,30.0,29.79,ESE,115,13.0,13.0,71,0.00,,---,0.00,VWS V14.01,2013-03-17 19:28:00,
2013-03-17 14:29:00,38.8,30.2,29.79,ESE,107,8.0,13.0,71,0.00,,---,0.00,VWS V14.01,2013-03-17 19:29:00,
2013-03-17 14:30:00,38.6,29.7,29.78,ESE,103,5.0,13.0,70,0.00,,---,0.00,VWS V14.01,2013-03-17 19:30:00,
2013-03-17 14:31:00,38.6,29.7,29.78,ESE,111,9.0,12.0,70,0.00,,---,0.00,VWS V14.01,2013-03-17 19:31:00,
2013-03-17 14:32:00,38.6,29.7,29.78,ESE,110,5.0,12.0,70,0.00,,---,0.00,VWS V14.01,2013-03-17 19:32:00,
2013-03-17 14:33:00,38.8,30.2,29.78,ESE,113,13.0,14.0,71,0.00,,---,0.00,VWS V14.01,2013-03-17 19:33:00,
2013-03-17 14:34:00,38.8,30.2,29.78,ESE,104,10.0,14.0,71,0.00,,---,0.00,VWS V14.01,2013-03-17 19:34:00,
2013-03-17 14:36:00,38.8,30.2,29.78,East,96,7.0,14.0,71,0.00,,---,0.00,VWS V14.01,2013-03-17 19:36:00,
2013-03-17 14:37:00,38.6,29.7,29.78,East,100,10.0,14.0,70,0.00,,---,0.00,VWS V14.01,2013-03-17 19:37:00,
2013-03-17 14:38:00,38.6,30.0,29.78,East,80,6.0,14.0,71,0.00,,---,0.00,VWS V14.01,2013-03-17 19:38:00,
2013-03-17 14:39:00,38.6,30.0,29.78,East,82,6.0,14.0,71,0.00,,---,0.00,VWS V14.01,2013-03-17 19:39:00,
2013-03-17 14:40:00,38.6,29.7,29.78,East,86,7.0,14.0,70,0.00,,---,0.00,VWS V14.01,2013-03-17 19:40:00,
2013-03-17 14:41:00,38.6,29.7,29.78,East,88,5.0,8.0,70,0.00,,---,0.00,VWS V14.01,2013-03-17 19:41:00,
2013-03-17 14:42:00,38.6,30.0,29.78,East,88,8.0,9.0,71,0.00,,---,0.00,VWS V14.01,2013-03-17 19:42:00,
2013-03-17 14:43:00,38.6,30.0,29.78,East,96,7.0,13.0,71,0.00,,---,0.00,VWS V14.01,2013-03-17 19:43:00,
2013-03-17 14:44:00,38.6,29.7,29.77,East,94,6.0,13.0,70,0.00,,---,0.00,VWS V14.01,2013-03-17 19:44:00,
2013-03-17 14:46:00,38.8,30.2,29.77,East,84,6.0,13.0,71,0.00,,---,0.00,VWS V14.01,2013-03-17 19:46:00,
2013-03-17 14:47:00,38.8,30.2,29.77,East,85,10.0,13.0,71,0.00,,---,0.00,VWS V14.01,2013-03-17 19:47:00,
2013-03-17 14:48:00,38.8,30.2,29.77,ENE,74,10.0,13.0,71,0.00,,---,0.00,VWS V14.01,2013-03-17 19:48:00,
2013-03-17 14:49:00,38.8,30.2,29.77,East,80,7.0,13.0,71,0.00,,---,0.00,VWS V14.01,2013-03-17 19:49:00,
2013-03-17 14:50:00,38.9,30.3,29.77,ESE,120,12.0,13.0,71,0.00,,---,0.00,VWS V14.01,2013-03-17 19:50:00,
2013-03-17 14:51:00,39.1,30.2,29.77,ESE,112,9.0,13.0,70,0.00,,---,0.00,VWS V14.01,2013-03-17 19:51:00,
2013-03-17 14:53:00,38.9,30.0,29.77,East,98,9.0,13.0,70,0.00,,---,0.00,VWS V14.01,2013-03-17 19:53:00,
2013-03-17 14:54:00,38.8,29.9,29.77,East,89,10.0,13.0,70,0.00,,---,0.00,VWS V14.01,2013-03-17 19:54:00,
2013-03-17 14:57:00,38.9,30.0,29.77,ESE,109,9.0,13.0,70,0.00,,---,0.00,VWS V14.01,2013-03-17 19:57:00,
2013-03-17 14:58:00,38.8,30.2,29.77,ESE,116,7.0,13.0,71,0.00,,---,0.00,VWS V14.01,2013-03-17 19:58:00,
2013-03-17 14:59:00,38.8,29.9,29.76,ESE,113,6.0,13.0,70,0.00,,---,0.00,VWS V14.01,2013-03-17 19:59:00,
2013-03-17 15:00:00,38.9,30.3,29.76,ESE,109,6.0,13.0,71,0.00,,---,0.00,VWS V14.01,2013-03-17 20:00:00,
2013-03-17 15:02:00,38.9,30.3,29.76,ESE,107,8.0,10.0,71,0.00,,---,0.00,VWS V14.01,2013-03-17 20:02:00,
2013-03-17 15:03:00,39.1,30.5,29.76,East,87,11.0,11.0,71,0.00,,---,0.00,VWS V14.01,2013-03-17 20:03:00,
2013-03-17 15:04:00,38.9,30.0,29.76,East,93,6.0,11.0,70,0.00,,---,0.00,VWS V14.01,2013-03-17 20:04:00,
2013-03-17 15:07:00,38.9,30.3,29.76,East,94,9.0,12.0,71,0.00,,---,0.00,VWS V14.01,2013-03-17 20:07:00,
2013-03-17 15:08:00,39.1,30.5,29.76,East,88,5.0,12.0,71,0.00,,---,0.00,VWS V14.01,2013-03-17 20:08:00,
2013-03-17 15:09:00,38.9,30.3,29.76,East,85,9.0,12.0,71,0.00,,---,0.00,VWS V14.01,2013-03-17 20:09:00,
2013-03-17 15:10:00,38.9,30.3,29.76,ENE,76,7.0,12.0,71,0.00,,---,0.00,VWS V14.01,2013-03-17 20:10:00,
2013-03-17 15:12:00,38.9,30.3,29.76,East,98,10.0,13.0,71,0.00,,---,0.00,VWS V14.01,2013-03-17 20:12:00,
2013-03-17 15:13:00,38.9,30.3,29.76,East,88,10.0,13.0,71,0.00,,---,0.00,VWS V14.01,2013-03-17 20:13:00,
2013-03-17 15:14:00,38.9,30.3,29.76,East,88,7.0,13.0,71,0.00,,---,0.00,VWS V14.01,2013-03-17 20:14:00,
2013-03-17 15:17:00,38.9,30.3,29.75,ESE,102,5.0,13.0,71,0.00,,---,0.00,VWS V14.01,2013-03-17 20:17:00,
2013-03-17 15:18:00,39.1,30.5,29.75,ESE,105,7.0,13.0,71,0.00,,---,0.00,VWS V14.01,2013-03-17 20:18:00,
2013-03-17 15:19:00,39.1,30.5,29.75,ESE,109,7.0,13.0,71,0.00,,---,0.00,VWS V14.01,2013-03-17 20:19:00,
2013-03-17 15:20:00,39.1,30.5,29.75,East,97,7.0,13.0,71,0.00,,---,0.00,VWS V14.01,2013-03-17 20:20:00,
2013-03-17 15:22:00,39.1,30.5,29.75,East,96,8.0,10.0,71,0.00,,---,0.00,VWS V14.01,2013-03-17 20:22:00,
2013-03-17 15:23:00,39.1,30.2,29.75,East,96,7.0,10.0,70,0.00,,---,0.00,VWS V14.01,2013-03-17 20:23:00,
2013-03-17 15:24:00,39.1,30.2,29.75,East,96,5.0,10.0,70,0.00,,---,0.00,VWS V14.01,2013-03-17 20:24:00,
2013-03-17 15:27:00,39.3,30.7,29.75,East,87,9.0,11.0,71,0.00,,---,0.00,VWS V14.01,2013-03-17 20:27:00,
2013-03-17 15:28:00,39.3,30.7,29.75,East,88,5.0,11.0,71,0.00,,---,0.00,VWS V14.01,2013-03-17 20:28:00,
2013-03-17 15:29:00,39.2,30.6,29.75,East,88,5.0,11.0,71,0.00,,---,0.00,VWS V14.01,2013-03-17 20:29:00,
2013-03-17 15:30:00,39.2,30.2,29.74,East,88,0.0,11.0,70,0.00,,---,0.00,VWS V14.01,2013-03-17 20:30:00,
2013-03-17 15:32:00,39.3,30.7,29.74,East,80,9.0,11.0,71,0.00,,---,0.00,VWS V14.01,2013-03-17 20:32:00,
2013-03-17 15:33:00,39.3,30.7,29.74,ENE,74,9.0,11.0,71,0.00,,---,0.00,VWS V14.01,2013-03-17 20:33:00,
2013-03-17 15:34:00,39.5,30.9,29.74,East,80,8.0,11.0,71,0.00,,---,0.00,VWS V14.01,2013-03-17 20:34:00,
2013-03-17 15:37:00,39.5,30.5,29.74,East,84,11.0,12.0,70,0.00,,---,0.00,VWS V14.01,2013-03-17 20:37:00,
2013-03-17 15:38:00,39.5,30.5,29.74,East,85,11.0,13.0,70,0.00,,---,0.00,VWS V14.01,2013-03-17 20:38:00,
2013-03-17 15:39:00,39.3,30.4,29.74,ENE,76,8.0,13.0,70,0.00,,---,0.00,VWS V14.01,2013-03-17 20:39:00,
2013-03-17 15:40:00,39.3,30.4,29.74,East,83,9.0,13.0,70,0.00,,---,0.00,VWS V14.01,2013-03-17 20:40:00,
2013-03-17 15:43:00,39.2,30.6,29.74,East,84,11.0,13.0,71,0.00,,---,0.00,VWS V14.01,2013-03-17 20:43:00,
2013-03-17 15:44:00,39.2,30.6,29.72,East,88,11.0,14.0,71,0.00,,---,0.00,VWS V14.01,2013-03-17 20:44:00,
2013-03-17 15:48:00,39.1,30.9,29.72,East,88,7.0,14.0,72,0.00,,---,0.00,VWS V14.01,2013-03-17 20:48:00,
2013-03-17 15:49:00,39.1,30.9,29.72,East,92,8.0,14.0,72,0.00,,---,0.00,VWS V14.01,2013-03-17 20:49:00,
2013-03-17 15:50:00,39.1,30.9,29.72,East,96,7.0,14.0,72,0.00,,---,0.00,VWS V14.01,2013-03-17 20:50:00,
2013-03-17 15:53:00,39.3,31.0,29.72,East,99,11.0,13.0,72,0.00,,---,0.00,VWS V14.01,2013-03-17 20:53:00,
2013-03-17 15:54:00,39.5,31.2,29.72,ESE,107,7.0,13.0,72,0.00,,---,0.00,VWS V14.01,2013-03-17 20:54:00,
2013-03-17 15:58:00,39.3,30.7,29.72,East,80,7.0,13.0,71,0.00,,---,0.00,VWS V14.01,2013-03-17 20:58:00,
2013-03-17 15:59:00,39.5,30.9,29.72,East,98,10.0,13.0,71,0.00,,---,0.00,VWS V14.01,2013-03-17 20:59:00,
2013-03-17 16:00:00,39.5,30.9,29.71,East,101,7.0,13.0,71,0.00,,---,0.00,VWS V14.01,2013-03-17 21:00:00,
2013-03-17 16:03:00,39.3,30.7,29.71,East,86,11.0,13.0,71,0.00,,---,0.00,VWS V14.01,2013-03-17 21:03:00,
2013-03-17 16:04:00,39.3,30.7,29.71,East,88,11.0,13.0,71,0.00,,---,0.00,VWS V14.01,2013-03-17 21:04:00,
2013-03-17 16:08:00,39.3,31.0,29.71,ESE,105,13.0,15.0,72,0.00,,---,0.00,VWS V14.01,2013-03-17 21:08:00,
2013-03-17 16:09:00,39.2,30.6,29.71,East,101,11.0,15.0,71,0.00,,---,0.00,VWS V14.01,2013-03-17 21:09:00,
2013-03-17 16:10:00,39.1,30.9,29.71,ESE,113,7.0,15.0,72,0.00,,---,0.00,VWS V14.01,2013-03-17 21:10:00,
2013-03-17 16:13:00,39.2,31.0,29.71,East,100,12.0,14.0,72,0.00,,---,0.00,VWS V14.01,2013-03-17 21:13:00,
2013-03-17 16:14:00,39.2,31.0,29.71,East,90,11.0,14.0,72,0.00,,---,0.00,VWS V14.01,2013-03-17 21:14:00,
2013-03-17 16:18:00,39.2,31.0,29.70,ESE,105,8.0,14.0,72,0.00,,---,0.00,VWS V14.01,2013-03-17 21:18:00,
2013-03-17 16:19:00,39.2,31.0,29.70,East,101,10.0,14.0,72,0.00,,---,0.00,VWS V14.01,2013-03-17 21:19:00,
2013-03-17 16:20:00,39.2,31.0,29.70,East,100,6.0,14.0,72,0.00,,---,0.00,VWS V14.01,2013-03-17 21:20:00,
2013-03-17 16:23:00,39.3,31.0,29.70,East,95,12.0,12.0,72,0.00,,---,0.00,VWS V14.01,2013-03-17 21:23:00,
2013-03-17 16:24:00,39.5,31.2,29.70,East,80,9.0,14.0,72,0.00,,---,0.00,VWS V14.01,2013-03-17 21:24:00,
2013-03-17 16:25:00,39.5,31.2,29.70,East,98,11.0,14.0,72,0.00,,---,0.00,VWS V14.01,2013-03-17 21:25:00,
2013-03-17 16:28:00,39.2,31.0,29.70,East,88,10.0,16.0,72,0.00,,---,0.00,VWS V14.01,2013-03-17 21:28:00,
2013-03-17 16:29:00,39.2,31.0,29.70,East,96,13.0,16.0,72,0.00,,---,0.00,VWS V14.01,2013-03-17 21:29:00,
2013-03-17 16:30:00,39.1,30.9,29.70,East,101,11.0,11.0,72,0.00,,---,0.00,VWS V14.01,2013-03-17 21:30:00,
2013-03-17 16:33:00,39.1,31.2,29.70,East,91,9.0,13.0,73,0.00,,---,0.00,VWS V14.01,2013-03-17 21:33:00,
2013-03-17 16:34:00,39.1,31.2,29.70,East,101,11.0,13.0,73,0.00,,---,0.00,VWS V14.01,2013-03-17 21:34:00,
2013-03-17 16:35:00,39.1,31.2,29.70,East,88,10.0,13.0,73,0.00,,---,0.00,VWS V14.01,2013-03-17 21:35:00,
2013-03-17 16:38:00,39.2,31.3,29.70,ESE,107,7.0,13.0,73,0.00,,---,0.00,VWS V14.01,2013-03-17 21:38:00,
2013-03-17 16:39:00,39.2,31.3,29.70,East,86,11.0,14.0,73,0.00,,---,0.00,VWS V14.01,2013-03-17 21:39:00,
2013-03-17 16:40:00,39.2,31.3,29.70,East,92,11.0,14.0,73,0.00,,---,0.00,VWS V14.01,2013-03-17 21:40:00,
2013-03-17 16:43:00,39.3,31.4,29.70,East,86,11.0,13.0,73,0.00,,---,0.00,VWS V14.01,2013-03-17 21:43:00,
2013-03-17 16:44:00,39.2,31.0,29.69,East,89,9.0,13.0,72,0.00,,---,0.00,VWS V14.01,2013-03-17 21:44:00,
2013-03-17 16:45:00,39.3,31.0,29.69,East,96,10.0,13.0,72,0.00,,---,0.00,VWS V14.01,2013-03-17 21:45:00,
2013-03-17 16:48:00,39.3,31.4,29.69,East,90,9.0,13.0,73,0.00,,---,0.00,VWS V14.01,2013-03-17 21:48:00,
2013-03-17 16:49:00,39.3,31.7,29.69,East,98,10.0,13.0,74,0.00,,---,0.00,VWS V14.01,2013-03-17 21:49:00,
2013-03-17 16:50:00,39.3,31.7,29.69,ESE,107,6.0,6.0,74,0.00,,---,0.00,VWS V14.01,2013-03-17 21:50:00,
2013-03-17 16:53:00,39.2,31.3,29.69,ESE,107,12.0,14.0,73,0.00,,---,0.00,VWS V14.01,2013-03-17 21:53:00,
2013-03-17 16:54:00,39.2,31.3,29.69,East,96,10.0,14.0,73,0.00,,---,0.00,VWS V14.01,2013-03-17 21:54:00,
2013-03-17 16:55:00,39.2,31.3,29.69,ESE,102,13.0,14.0,73,0.00,,---,0.00,VWS V14.01,2013-03-17 21:55:00,
2013-03-17 16:58:00,38.9,31.0,29.69,East,88,13.0,14.0,73,0.00,,---,0.00,VWS V14.01,2013-03-17 21:58:00,
2013-03-17 16:59:00,38.9,31.0,29.67,East,86,13.0,16.0,73,0.00,,---,0.00,VWS V14.01,2013-03-17 21:59:00,
2013-03-17 17:00:00,38.9,31.3,29.67,East,84,9.0,9.0,74,0.00,,---,0.00,VWS V14.01,2013-03-17 22:00:00,
2013-03-17 17:04:00,39.2,31.6,29.67,East,85,6.0,14.0,74,0.00,,---,0.00,VWS V14.01,2013-03-17 22:04:00,
2013-03-17 17:05:00,39.2,31.6,29.67,East,91,13.0,14.0,74,0.00,,---,0.00,VWS V14.01,2013-03-17 22:05:00,
2013-03-17 17:09:00,38.9,31.7,29.67,East,84,10.0,15.0,75,0.00,,---,0.00,VWS V14.01,2013-03-17 22:09:00,
2013-03-17 17:10:00,38.9,31.7,29.67,ESE,110,9.0,10.0,75,0.00,,---,0.00,VWS V14.01,2013-03-17 22:10:00,
2013-03-17 17:14:00,38.9,31.7,29.67,East,93,7.0,13.0,75,0.00,,---,0.00,VWS V14.01,2013-03-17 22:14:00,
2013-03-17 17:15:00,39.1,31.9,29.67,East,99,11.0,13.0,75,0.00,,---,0.00,VWS V14.01,2013-03-17 22:15:00,
2013-03-17 17:19:00,38.8,31.9,29.67,ESE,106,15.0,16.0,76,0.00,,---,0.00,VWS V14.01,2013-03-17 22:19:00,
2013-03-17 17:20:00,38.6,31.7,29.67,ESE,102,13.0,16.0,76,0.00,,---,0.00,VWS V14.01,2013-03-17 22:20:00,
2013-03-17 17:24:00,38.6,31.7,29.67,ESE,111,10.0,14.0,76,0.00,,---,0.00,VWS V14.01,2013-03-17 22:24:00,
2013-03-17 17:25:00,38.6,32.0,29.67,ESE,113,10.0,14.0,77,0.00,,---,0.00,VWS V14.01,2013-03-17 22:25:00,
2013-03-17 17:29:00,38.6,32.0,29.67,ESE,117,6.0,14.0,77,0.00,,---,0.00,VWS V14.01,2013-03-17 22:29:00,
2013-03-17 17:30:00,38.8,32.2,29.67,ESE,117,6.0,14.0,77,0.00,,---,0.00,VWS V14.01,2013-03-17 22:30:00,
2013-03-17 17:34:00,38.9,32.0,29.67,ESE,123,11.0,13.0,76,0.00,,---,0.00,VWS V14.01,2013-03-17 22:34:00,
2013-03-17 17:35:00,38.9,32.0,29.67,ESE,114,11.0,13.0,76,0.00,,---,0.00,VWS V14.01,2013-03-17 22:35:00,
2013-03-17 17:39:00,38.9,32.0,29.67,East,92,7.0,13.0,76,0.00,,---,0.00,VWS V14.01,2013-03-17 22:39:00,
2013-03-17 17:40:00,38.9,32.0,29.67,East,90,10.0,13.0,76,0.00,,---,0.00,VWS V14.01,2013-03-17 22:40:00,
2013-03-17 17:44:00,38.9,32.0,29.68,East,100,9.0,13.0,76,0.00,,---,0.00,VWS V14.01,2013-03-17 22:44:00,
2013-03-17 17:45:00,38.9,32.0,29.68,East,94,9.0,13.0,76,0.00,,---,0.00,VWS V14.01,2013-03-17 22:45:00,
2013-03-17 17:49:00,38.8,31.9,29.68,East,92,10.0,13.0,76,0.00,,---,0.00,VWS V14.01,2013-03-17 22:49:00,
2013-03-17 17:50:00,38.8,31.9,29.68,East,94,9.0,13.0,76,0.00,,---,0.00,VWS V14.01,2013-03-17 22:50:00,
2013-03-17 17:54:00,38.8,31.9,29.68,East,95,9.0,11.0,76,0.00,,---,0.00,VWS V14.01,2013-03-17 22:54:00,
2013-03-17 17:55:00,38.8,31.9,29.68,East,91,10.0,11.0,76,0.00,,---,0.00,VWS V14.01,2013-03-17 22:55:00,
2013-03-17 17:59:00,38.8,31.9,29.67,ESE,114,10.0,13.0,76,0.00,,---,0.00,VWS V14.01,2013-03-17 22:59:00,
2013-03-17 18:00:00,38.8,31.9,29.67,ESE,122,12.0,12.0,76,0.00,,---,0.00,VWS V14.01,2013-03-17 23:00:00,
2013-03-17 18:01:00,38.8,31.9,29.67,East,100,11.0,12.0,76,0.00,,---,0.00,VWS V14.01,2013-03-17 23:01:00,
2013-03-17 18:04:00,38.8,31.9,29.67,East,101,9.0,12.0,76,0.00,,---,0.00,VWS V14.01,2013-03-17 23:04:00,
2013-03-17 18:05:00,38.8,31.9,29.67,East,101,7.0,12.0,76,0.00,,---,0.00,VWS V14.01,2013-03-17 23:05:00,
2013-03-17 18:06:00,38.6,32.0,29.67,ESE,113,11.0,14.0,77,0.00,,---,0.00,VWS V14.01,2013-03-17 23:06:00,
2013-03-17 18:09:00,38.3,31.7,29.67,ESE,109,8.0,14.0,77,0.00,,---,0.00,VWS V14.01,2013-03-17 23:09:00,
2013-03-17 18:10:00,38.3,31.7,29.67,ESE,111,10.0,10.0,77,0.00,,---,0.00,VWS V14.01,2013-03-17 23:10:00,
2013-03-17 18:11:00,38.3,31.7,29.67,ESE,113,14.0,15.0,77,0.00,,---,0.00,VWS V14.01,2013-03-17 23:11:00,
2013-03-17 18:14:00,38.2,31.6,29.67,ESE,114,11.0,15.0,77,0.00,,---,0.00,VWS V14.01,2013-03-17 23:14:00,
2013-03-17 18:15:00,38.2,31.6,29.67,ESE,109,10.0,15.0,77,0.00,,---,0.00,VWS V14.01,2013-03-17 23:15:00,
2013-03-17 18:16:00,38.2,31.6,29.67,ESE,109,11.0,15.0,77,0.00,,---,0.00,VWS V14.01,2013-03-17 23:16:00,
2013-03-17 18:19:00,38.2,31.6,29.67,East,101,6.0,15.0,77,0.00,,---,0.00,VWS V14.01,2013-03-17 23:19:00,
2013-03-17 18:20:00,38.2,32.0,29.67,East,94,12.0,13.0,78,0.00,,---,0.00,VWS V14.01,2013-03-17 23:20:00,
2013-03-17 18:21:00,38.2,32.0,29.67,ESE,109,10.0,14.0,78,0.00,,---,0.00,VWS V14.01,2013-03-17 23:21:00,
2013-03-17 18:24:00,38.2,32.0,29.67,East,99,9.0,15.0,78,0.00,,---,0.00,VWS V14.01,2013-03-17 23:24:00,
2013-03-17 18:25:00,38.2,32.0,29.67,East,96,11.0,15.0,78,0.00,,---,0.00,VWS V14.01,2013-03-17 23:25:00,
2013-03-17 18:26:00,38.0,31.8,29.67,ESE,113,9.0,15.0,78,0.00,,---,0.00,VWS V14.01,2013-03-17 23:26:00,
2013-03-17 18:29:00,37.8,31.6,29.66,ESE,109,7.0,15.0,78,0.00,,---,0.00,VWS V14.01,2013-03-17 23:29:00,
2013-03-17 18:30:00,37.8,31.6,29.66,ESE,104,10.0,12.0,78,0.00,,---,0.00,VWS V14.01,2013-03-17 23:30:00,
2013-03-17 18:31:00,37.8,31.6,29.66,ESE,113,10.0,12.0,78,0.00,,---,0.00,VWS V14.01,2013-03-17 23:31:00,
2013-03-17 18:35:00,37.5,31.3,29.66,East,98,13.0,17.0,78,0.00,,---,0.00,VWS V14.01,2013-03-17 23:35:00,
2013-03-17 18:36:00,37.5,31.6,29.66,East,94,10.0,17.0,79,0.00,,---,0.00,VWS V14.01,2013-03-17 23:36:00,
2013-03-17 18:40:00,37.2,31.3,29.66,East,88,14.0,18.0,79,0.00,,---,0.00,VWS V14.01,2013-03-17 23:40:00,
2013-03-17 18:41:00,37.2,31.3,29.66,ESE,103,14.0,15.0,79,0.00,,---,0.00,VWS V14.01,2013-03-17 23:41:00,
2013-03-17 18:45:00,37.2,31.6,29.65,East,98,10.0,17.0,80,0.00,,---,0.00,VWS V14.01,2013-03-17 23:45:00,
2013-03-17 18:47:00,37.2,31.6,29.65,ESE,112,6.0,17.0,80,0.00,,---,0.00,VWS V14.01,2013-03-17 23:47:00,
2013-03-17 18:50:00,37.2,31.6,29.65,ESE,106,6.0,9.0,80,0.00,,---,0.00,VWS V14.01,2013-03-17 23:50:00,
2013-03-17 18:52:00,37.2,31.6,29.65,ESE,107,12.0,13.0,80,0.00,,---,0.00,VWS V14.01,2013-03-17 23:52:00,
2013-03-17 18:55:00,37.2,31.6,29.65,East,82,15.0,16.0,80,0.00,,---,0.00,VWS V14.01,2013-03-17 23:55:00,
2013-03-17 18:57:00,37.2,31.6,29.65,ESE,102,13.0,16.0,80,0.00,,---,0.00,VWS V14.01,2013-03-17 23:57:00,
2013-03-17 19:00:00,37.0,31.4,29.65,ESE,103,12.0,14.0,80,0.00,,---,0.00,VWS V14.01,2013-03-18 00:00:00,
2013-03-17 19:01:00,37.0,31.4,29.65,ESE,110,9.0,16.0,80,0.00,,---,0.00,VWS V14.01,2013-03-18 00:01:00,
2013-03-17 19:02:00,37.0,31.4,29.65,ESE,119,12.0,16.0,80,0.00,,---,0.00,VWS V14.01,2013-03-18 00:02:00,
2013-03-17 19:05:00,37.0,31.4,29.65,ESE,111,12.0,16.0,80,0.00,,---,0.00,VWS V14.01,2013-03-18 00:05:00,
2013-03-17 19:06:00,37.0,31.4,29.65,ESE,115,13.0,16.0,80,0.00,,---,0.00,VWS V14.01,2013-03-18 00:06:00,
2013-03-17 19:07:00,37.0,31.4,29.65,ESE,111,11.0,16.0,80,0.00,,---,0.00,VWS V14.01,2013-03-18 00:07:00,
2013-03-17 19:10:00,37.0,31.4,29.65,East,98,11.0,12.0,80,0.00,,---,0.00,VWS V14.01,2013-03-18 00:10:00,
2013-03-17 19:11:00,37.0,31.4,29.65,East,101,15.0,15.0,80,0.00,,---,0.00,VWS V14.01,2013-03-18 00:11:00,
2013-03-17 19:12:00,36.9,31.3,29.65,East,101,13.0,17.0,80,0.00,,---,0.00,VWS V14.01,2013-03-18 00:12:00,
2013-03-17 19:15:00,36.9,31.3,29.66,ESE,104,8.0,17.0,80,0.00,,---,0.00,VWS V14.01,2013-03-18 00:15:00,
2013-03-17 19:16:00,36.9,31.3,29.66,ESE,107,11.0,17.0,80,0.00,,---,0.00,VWS V14.01,2013-03-18 00:16:00,
2013-03-17 19:17:00,36.9,31.6,29.66,ESE,105,12.0,17.0,81,0.00,,---,0.00,VWS V14.01,2013-03-18 00:17:00,
2013-03-17 19:20:00,36.8,31.5,29.66,East,101,5.0,10.0,81,0.00,,---,0.00,VWS V14.01,2013-03-18 00:20:00,
2013-03-17 19:22:00,36.8,31.5,29.66,ESE,110,12.0,15.0,81,0.00,,---,0.00,VWS V14.01,2013-03-18 00:22:00,
2013-03-17 19:25:00,36.8,31.5,29.66,ESE,111,8.0,15.0,81,0.00,,---,0.00,VWS V14.01,2013-03-18 00:25:00,
2013-03-17 19:27:00,36.8,31.5,29.66,ESE,120,7.0,15.0,81,0.00,,---,0.00,VWS V14.01,2013-03-18 00:27:00,
2013-03-17 19:30:00,36.6,31.3,29.66,ESE,118,9.0,11.0,81,0.00,,---,0.00,VWS V14.01,2013-03-18 00:30:00,
2013-03-17 19:32:00,36.6,31.3,29.66,ESE,107,10.0,13.0,81,0.00,,---,0.00,VWS V14.01,2013-03-18 00:32:00,
2013-03-17 19:35:00,36.6,31.6,29.66,ESE,113,9.0,13.0,82,0.00,,---,0.00,VWS V14.01,2013-03-18 00:35:00,
2013-03-17 19:37:00,36.6,31.6,29.66,ESE,115,15.0,15.0,82,0.00,,---,0.00,VWS V14.01,2013-03-18 00:37:00,
2013-03-17 19:40:00,36.5,31.5,29.66,ESE,121,12.0,12.0,82,0.00,,---,0.00,VWS V14.01,2013-03-18 00:40:00,
2013-03-17 19:41:00,36.5,31.5,29.66,ESE,105,9.0,12.0,82,0.00,,---,0.00,VWS V14.01,2013-03-18 00:41:00,
2013-03-17 19:42:00,36.5,31.5,29.66,SE,124,11.0,14.0,82,0.00,,---,0.00,VWS V14.01,2013-03-18 00:42:00,
2013-03-17 19:46:00,36.5,31.5,29.67,ESE,114,8.0,14.0,82,0.00,,---,0.00,VWS V14.01,2013-03-18 00:46:00,
2013-03-17 19:47:00,36.5,31.5,29.67,ESE,115,6.0,14.0,82,0.00,,---,0.00,VWS V14.01,2013-03-18 00:47:00,
2013-03-17 19:48:00,36.5,31.5,29.67,ESE,115,10.0,14.0,82,0.00,,---,0.00,VWS V14.01,2013-03-18 00:48:00,
2013-03-17 19:50:00,36.3,31.3,29.67,ESE,117,14.0,15.0,82,0.00,,---,0.00,VWS V14.01,2013-03-18 00:50:00,
2013-03-17 19:51:00,36.3,31.3,29.67,ESE,114,7.0,14.0,82,0.00,,---,0.00,VWS V14.01,2013-03-18 00:51:00,
2013-03-17 19:52:00,36.3,31.3,29.67,ESE,105,3.0,14.0,82,0.00,,---,0.00,VWS V14.01,2013-03-18 00:52:00,
2013-03-17 19:53:00,36.3,31.3,29.67,ESE,105,6.0,14.0,82,0.00,,---,0.00,VWS V14.01,2013-03-18 00:53:00,
2013-03-17 19:56:00,36.3,31.6,29.67,ESE,105,10.0,14.0,83,0.00,,---,0.00,VWS V14.01,2013-03-18 00:56:00,
2013-03-17 19:57:00,36.3,31.6,29.67,ESE,115,10.0,14.0,83,0.00,,---,0.00,VWS V14.01,2013-03-18 00:57:00,
2013-03-17 19:58:00,36.3,31.6,29.67,ESE,103,9.0,14.0,83,0.00,,---,0.00,VWS V14.01,2013-03-18 00:58:00,
2013-03-17 20:00:00,36.3,31.6,29.66,East,97,13.0,14.0,83,0.00,,---,0.00,VWS V14.01,2013-03-18 01:00:00,
2013-03-17 20:01:00,36.3,31.6,29.66,East,95,10.0,17.0,83,0.00,,---,0.00,VWS V14.01,2013-03-18 01:01:00,
2013-03-17 20:02:00,36.2,31.5,29.66,East,101,13.0,17.0,83,0.00,,---,0.00,VWS V14.01,2013-03-18 01:02:00,
2013-03-17 20:03:00,36.2,31.5,29.66,East,100,13.0,17.0,83,0.00,,---,0.00,VWS V14.01,2013-03-18 01:03:00,
2013-03-17 20:06:00,36.2,31.5,29.66,ESE,116,6.0,17.0,83,0.00,,---,0.00,VWS V14.01,2013-03-18 01:06:00,
2013-03-17 20:07:00,36.2,31.5,29.66,East,93,11.0,17.0,83,0.00,,---,0.00,VWS V14.01,2013-03-18 01:07:00,
2013-03-17 20:08:00,36.2,31.5,29.66,East,100,11.0,17.0,83,0.00,,---,0.00,VWS V14.01,2013-03-18 01:08:00,
2013-03-17 20:10:00,36.2,31.5,29.66,East,100,10.0,17.0,83,0.00,,---,0.00,VWS V14.01,2013-03-18 01:10:00,
2013-03-17 20:11:00,36.2,31.5,29.66,East,99,9.0,11.0,83,0.00,,---,0.00,VWS V14.01,2013-03-18 01:11:00,
2013-03-17 20:13:00,36.2,31.5,29.66,ESE,104,10.0,13.0,83,0.00,,---,0.00,VWS V14.01,2013-03-18 01:13:00,
2013-03-17 20:16:00,36.0,31.4,29.67,ESE,107,10.0,14.0,83,0.00,,---,0.00,VWS V14.01,2013-03-18 01:16:00,
2013-03-17 20:18:00,36.0,31.4,29.67,ESE,113,9.0,14.0,83,0.00,,---,0.00,VWS V14.01,2013-03-18 01:18:00,
2013-03-17 20:20:00,36.0,31.4,29.67,East,96,11.0,14.0,83,0.00,,---,0.00,VWS V14.01,2013-03-18 01:20:00,
2013-03-17 20:21:00,36.0,31.4,29.67,ESE,103,10.0,13.0,83,0.00,,---,0.00,VWS V14.01,2013-03-18 01:21:00,
2013-03-17 20:23:00,36.0,31.4,29.67,ESE,115,12.0,14.0,83,0.00,,---,0.00,VWS V14.01,2013-03-18 01:23:00,
2013-03-17 20:26:00,35.9,31.2,29.67,ESE,105,11.0,14.0,83,0.00,,---,0.00,VWS V14.01,2013-03-18 01:26:00,
2013-03-17 20:27:00,35.9,31.2,29.67,ESE,112,12.0,14.0,83,0.00,,---,0.00,VWS V14.01,2013-03-18 01:27:00,
2013-03-17 20:28:00,35.9,31.2,29.67,ESE,115,10.0,14.0,83,0.00,,---,0.00,VWS V14.01,2013-03-18 01:28:00,
2013-03-17 20:30:00,35.9,31.5,29.68,ESE,116,14.0,14.0,84,0.00,,---,0.00,VWS V14.01,2013-03-18 01:30:00,
2013-03-17 20:31:00,35.8,31.5,29.68,ESE,115,10.0,14.0,84,0.00,,---,0.00,VWS V14.01,2013-03-18 01:31:00,
2013-03-17 20:32:00,35.8,31.5,29.68,ESE,117,13.0,14.0,84,0.00,,---,0.00,VWS V14.01,2013-03-18 01:32:00,
2013-03-17 20:33:00,35.8,31.5,29.68,ESE,113,12.0,14.0,84,0.00,,---,0.00,VWS V14.01,2013-03-18 01:33:00,
2013-03-17 20:36:00,35.8,31.5,29.68,ESE,122,10.0,14.0,84,0.00,,---,0.00,VWS V14.01,2013-03-18 01:36:00,
2013-03-17 20:37:00,35.8,31.5,29.68,ESE,117,11.0,14.0,84,0.00,,---,0.00,VWS V14.01,2013-03-18 01:37:00,
2013-03-17 20:38:00,35.8,31.5,29.68,ESE,122,10.0,14.0,84,0.00,,---,0.00,VWS V14.01,2013-03-18 01:38:00,
2013-03-17 20:40:00,35.8,31.5,29.68,ESE,119,10.0,14.0,84,0.00,,---,0.00,VWS V14.01,2013-03-18 01:40:00,
2013-03-17 20:41:00,35.8,31.5,29.68,ESE,117,12.0,14.0,84,0.00,,---,0.00,VWS V14.01,2013-03-18 01:41:00,
2013-03-17 20:42:00,35.8,31.5,29.68,ESE,109,7.0,14.0,84,0.00,,---,0.00,VWS V14.01,2013-03-18 01:42:00,
2013-03-17 20:43:00,35.8,31.5,29.68,ESE,120,12.0,14.0,84,0.00,,---,0.00,VWS V14.01,2013-03-18 01:43:00,
2013-03-17 20:46:00,35.8,31.5,29.68,ESE,117,13.0,15.0,84,0.00,,---,0.00,VWS V14.01,2013-03-18 01:46:00,
2013-03-17 20:47:00,35.8,30.5,29.68,ESE,119,13.0,15.0,81,0.00,,---,0.00,VWS V14.01,2013-03-18 01:47:00,
2013-03-17 20:48:00,35.8,30.5,29.68,ESE,117,9.0,15.0,81,0.00,,---,0.00,VWS V14.01,2013-03-18 01:48:00,
2013-03-17 20:50:00,35.8,31.5,29.68,ESE,111,9.0,15.0,84,0.00,,---,0.00,VWS V14.01,2013-03-18 01:50:00,
2013-03-17 20:52:00,35.8,31.5,29.68,SE,127,10.0,12.0,84,0.00,,---,0.00,VWS V14.01,2013-03-18 01:52:00,
2013-03-17 20:53:00,35.8,31.5,29.68,SE,126,9.0,12.0,84,0.00,,---,0.00,VWS V14.01,2013-03-18 01:53:00,
2013-03-17 20:57:00,35.8,31.5,29.68,SE,125,7.0,12.0,84,0.00,,---,0.00,VWS V14.01,2013-03-18 01:57:00,
2013-03-17 20:58:00,35.8,31.5,29.68,SE,125,5.0,12.0,84,0.00,,---,0.00,VWS V14.01,2013-03-18 01:58:00,
2013-03-17 21:00:00,35.8,31.5,29.69,SE,125,5.0,12.0,84,0.00,,---,0.00,VWS V14.01,2013-03-18 02:00:00,
2013-03-17 21:02:00,35.8,31.5,29.69,ESE,121,9.0,9.0,84,0.00,,---,0.00,VWS V14.01,2013-03-18 02:02:00,
2013-03-17 21:03:00,35.8,31.5,29.69,ESE,121,10.0,11.0,84,0.00,,---,0.00,VWS V14.01,2013-03-18 02:03:00,
2013-03-17 21:07:00,35.8,31.5,29.69,East,94,9.0,11.0,84,0.00,,---,0.00,VWS V14.01,2013-03-18 02:07:00,
2013-03-17 21:08:00,35.8,31.5,29.69,East,96,9.0,11.0,84,0.00,,---,0.00,VWS V14.01,2013-03-18 02:08:00,
2013-03-17 21:09:00,35.8,31.5,29.69,East,95,10.0,11.0,84,0.00,,---,0.00,VWS V14.01,2013-03-18 02:09:00,
2013-03-17 21:10:00,35.8,31.5,29.69,East,98,12.0,12.0,84,0.00,,---,0.00,VWS V14.01,2013-03-18 02:10:00,
2013-03-17 21:12:00,35.8,31.5,29.69,East,98,10.0,12.0,84,0.00,,---,0.00,VWS V14.01,2013-03-18 02:12:00,
2013-03-17 21:13:00,35.8,31.5,29.69,ESE,103,7.0,12.0,84,0.00,,---,0.00,VWS V14.01,2013-03-18 02:13:00,
2013-03-17 21:14:00,35.8,31.5,29.69,ESE,105,8.0,12.0,84,0.00,,---,0.00,VWS V14.01,2013-03-18 02:14:00,
2013-03-17 21:17:00,35.8,31.5,29.69,ESE,104,8.0,12.0,84,0.00,,---,0.00,VWS V14.01,2013-03-18 02:17:00,
2013-03-17 21:18:00,35.8,31.5,29.69,ESE,107,9.0,12.0,84,0.00,,---,0.00,VWS V14.01,2013-03-18 02:18:00,
2013-03-17 21:19:00,35.8,31.5,29.69,ESE,111,9.0,12.0,84,0.00,,---,0.00,VWS V14.01,2013-03-18 02:19:00,
2013-03-17 21:20:00,35.8,31.5,29.69,ESE,111,4.0,12.0,84,0.00,,---,0.00,VWS V14.01,2013-03-18 02:20:00,
2013-03-17 21:22:00,35.8,31.5,29.69,ESE,112,9.0,11.0,84,0.00,,---,0.00,VWS V14.01,2013-03-18 02:22:00,
2013-03-17 21:23:00,35.8,31.5,29.69,ESE,103,6.0,11.0,84,0.00,,---,0.00,VWS V14.01,2013-03-18 02:23:00,
2013-03-17 21:24:00,35.8,31.5,29.69,ESE,103,5.0,11.0,84,0.00,,---,0.00,VWS V14.01,2013-03-18 02:24:00,
2013-03-17 21:27:00,35.8,31.5,29.69,ESE,117,10.0,13.0,84,0.00,,---,0.00,VWS V14.01,2013-03-18 02:27:00,
2013-03-17 21:28:00,35.8,31.5,29.69,ESE,109,12.0,13.0,84,0.00,,---,0.00,VWS V14.01,2013-03-18 02:28:00,
2013-03-17 21:29:00,35.8,31.5,29.69,ESE,109,5.0,13.0,84,0.00,,---,0.00,VWS V14.01,2013-03-18 02:29:00,
2013-03-17 21:30:00,35.8,31.5,29.69,ESE,109,5.0,13.0,84,0.00,,---,0.00,VWS V14.01,2013-03-18 02:30:00,
2013-03-17 21:32:00,35.8,31.5,29.69,East,101,6.0,10.0,84,0.00,,---,0.00,VWS V14.01,2013-03-18 02:32:00,
2013-03-17 21:33:00,35.8,31.5,29.69,East,100,11.0,11.0,84,0.00,,---,0.00,VWS V14.01,2013-03-18 02:33:00,
2013-03-17 21:34:00,35.8,31.5,29.69,ESE,117,9.0,12.0,84,0.00,,---,0.00,VWS V14.01,2013-03-18 02:34:00,
2013-03-17 21:37:00,35.8,31.5,29.69,ESE,119,11.0,14.0,84,0.00,,---,0.00,VWS V14.01,2013-03-18 02:37:00,
2013-03-17 21:38:00,35.8,31.5,29.69,ESE,120,11.0,14.0,84,0.00,,---,0.00,VWS V14.01,2013-03-18 02:38:00,
2013-03-17 21:39:00,35.8,31.5,29.69,ESE,111,11.0,14.0,84,0.00,,---,0.00,VWS V14.01,2013-03-18 02:39:00,
2013-03-17 21:40:00,35.8,31.5,29.69,ESE,117,13.0,15.0,84,0.00,,---,0.00,VWS V14.01,2013-03-18 02:40:00,
2013-03-17 21:42:00,35.8,31.5,29.69,ESE,117,15.0,15.0,84,0.00,,---,0.00,VWS V14.01,2013-03-18 02:42:00,
2013-03-17 21:43:00,35.8,31.5,29.69,ESE,113,6.0,15.0,84,0.00,,---,0.00,VWS V14.01,2013-03-18 02:43:00,
2013-03-17 21:44:00,35.8,31.5,29.68,ESE,111,8.0,15.0,84,0.00,,---,0.00,VWS V14.01,2013-03-18 02:44:00,
2013-03-17 21:47:00,35.8,31.5,29.68,ESE,103,12.0,15.0,84,0.00,,---,0.00,VWS V14.01,2013-03-18 02:47:00,
2013-03-17 21:48:00,35.8,31.5,29.68,ESE,117,10.0,15.0,84,0.00,,---,0.00,VWS V14.01,2013-03-18 02:48:00,
2013-03-17 21:49:00,35.8,31.5,29.68,ESE,110,11.0,15.0,84,0.00,,---,0.00,VWS V14.01,2013-03-18 02:49:00,
2013-03-17 21:50:00,35.8,31.5,29.68,ESE,113,7.0,15.0,84,0.00,,---,0.00,VWS V14.01,2013-03-18 02:50:00,
2013-03-17 21:52:00,35.8,31.5,29.68,East,96,6.0,10.0,84,0.00,,---,0.00,VWS V14.01,2013-03-18 02:52:00,
2013-03-17 21:53:00,35.8,31.5,29.68,East,96,9.0,10.0,84,0.00,,---,0.00,VWS V14.01,2013-03-18 02:53:00,
2013-03-17 21:54:00,35.8,31.5,29.68,East,97,7.0,10.0,84,0.00,,---,0.00,VWS V14.01,2013-03-18 02:54:00,
2013-03-17 21:57:00,35.6,31.2,29.68,East,84,9.0,11.0,84,0.00,,---,0.00,VWS V14.01,2013-03-18 02:57:00,
2013-03-17 21:58:00,35.6,31.2,29.68,ENE,76,11.0,11.0,84,0.00,,---,0.00,VWS V14.01,2013-03-18 02:58:00,
2013-03-17 21:59:00,35.6,31.2,29.68,East,80,10.0,11.0,84,0.00,,---,0.00,VWS V14.01,2013-03-18 02:59:00,
2013-03-17 22:00:00,35.5,31.1,29.68,ENE,74,9.0,11.0,84,0.00,,---,0.00,VWS V14.01,2013-03-18 03:00:00,
2013-03-17 22:02:00,35.5,31.1,29.68,ENE,75,12.0,12.0,84,0.00,,---,0.00,VWS V14.01,2013-03-18 03:02:00,
2013-03-17 22:03:00,35.5,31.1,29.68,ENE,76,10.0,12.0,84,0.00,,---,0.00,VWS V14.01,2013-03-18 03:03:00,
2013-03-17 22:04:00,35.5,31.5,29.68,East,82,9.0,12.0,85,0.00,,---,0.00,VWS V14.01,2013-03-18 03:04:00,
2013-03-17 22:07:00,35.5,31.7,29.68,East,86,6.0,12.0,86,0.00,,---,0.00,VWS V14.01,2013-03-18 03:07:00,
2013-03-17 22:08:00,35.5,31.7,29.68,East,80,4.0,12.0,86,0.00,,---,0.00,VWS V14.01,2013-03-18 03:08:00,
2013-03-17 22:09:00,35.5,31.7,29.68,East,84,9.0,12.0,86,0.00,,---,0.00,VWS V14.01,2013-03-18 03:09:00,
2013-03-17 22:10:00,35.5,31.7,29.68,East,86,7.0,12.0,86,0.00,,---,0.00,VWS V14.01,2013-03-18 03:10:00,
2013-03-17 22:13:00,35.5,31.7,29.68,East,84,9.0,9.0,86,0.00,,---,0.00,VWS V14.01,2013-03-18 03:13:00,
2013-03-17 22:14:00,35.5,31.7,29.69,East,89,10.0,10.0,86,0.00,,---,0.00,VWS V14.01,2013-03-18 03:14:00,
2013-03-17 22:17:00,35.5,31.7,29.69,East,92,6.0,11.0,86,0.00,,---,0.00,VWS V14.01,2013-03-18 03:17:00,
2013-03-17 22:18:00,35.5,31.7,29.69,East,91,5.0,11.0,86,0.00,,---,0.00,VWS V14.01,2013-03-18 03:18:00,
2013-03-17 22:19:00,35.5,31.7,29.69,East,91,3.0,11.0,86,0.00,,---,0.00,VWS V14.01,2013-03-18 03:19:00,
2013-03-17 22:20:00,35.5,31.7,29.69,East,91,7.0,11.0,86,0.00,,---,0.00,VWS V14.01,2013-03-18 03:20:00,
2013-03-17 22:23:00,35.5,31.7,29.69,East,98,13.0,13.0,86,0.00,,---,0.00,VWS V14.01,2013-03-18 03:23:00,
2013-03-17 22:24:00,35.5,31.7,29.69,East,97,13.0,13.0,86,0.00,,---,0.00,VWS V14.01,2013-03-18 03:24:00,
2013-03-17 22:25:00,35.5,31.7,29.69,East,101,12.0,13.0,86,0.00,,---,0.00,VWS V14.01,2013-03-18 03:25:00,
2013-03-17 22:28:00,35.5,31.7,29.69,East,99,11.0,13.0,86,0.00,,---,0.00,VWS V14.01,2013-03-18 03:28:00,
2013-03-17 22:29:00,35.5,31.7,29.69,East,94,9.0,13.0,86,0.00,,---,0.00,VWS V14.01,2013-03-18 03:29:00,
2013-03-17 22:30:00,35.5,31.7,29.69,East,94,8.0,13.0,86,0.00,,---,0.00,VWS V14.01,2013-03-18 03:30:00,
2013-03-17 22:33:00,35.3,31.8,29.69,East,92,12.0,13.0,87,0.00,,---,0.00,VWS V14.01,2013-03-18 03:33:00,
2013-03-17 22:34:00,35.3,31.8,29.69,East,92,10.0,13.0,87,0.00,,---,0.00,VWS V14.01,2013-03-18 03:34:00,
2013-03-17 22:35:00,35.3,31.8,29.69,East,96,9.0,13.0,87,0.00,,---,0.00,VWS V14.01,2013-03-18 03:35:00,
2013-03-17 22:38:00,35.5,32.0,29.69,ESE,102,7.0,13.0,87,0.00,,---,0.00,VWS V14.01,2013-03-18 03:38:00,
2013-03-17 22:39:00,35.5,32.0,29.69,ESE,117,10.0,13.0,87,0.00,,---,0.00,VWS V14.01,2013-03-18 03:39:00,
2013-03-17 22:40:00,35.5,32.0,29.69,ESE,115,9.0,9.0,87,0.00,,---,0.00,VWS V14.01,2013-03-18 03:40:00,
2013-03-17 22:43:00,35.5,32.0,29.69,ESE,103,7.0,9.0,87,0.00,,---,0.00,VWS V14.01,2013-03-18 03:43:00,
2013-03-17 22:44:00,35.5,32.0,29.69,ESE,104,7.0,9.0,87,0.00,,---,0.00,VWS V14.01,2013-03-18 03:44:00,
2013-03-17 22:45:00,35.5,32.0,29.68,East,96,12.0,13.0,87,0.00,,---,0.00,VWS V14.01,2013-03-18 03:45:00,
2013-03-17 22:48:00,35.3,31.8,29.68,East,94,13.0,13.0,87,0.00,,---,0.00,VWS V14.01,2013-03-18 03:48:00,
2013-03-17 22:49:00,35.3,31.8,29.68,East,95,11.0,14.0,87,0.00,,---,0.00,VWS V14.01,2013-03-18 03:49:00,
2013-03-17 22:50:00,35.3,31.8,29.68,East,94,12.0,12.0,87,0.00,,---,0.00,VWS V14.01,2013-03-18 03:50:00,
2013-03-17 22:53:00,35.2,31.7,29.68,East,96,10.0,14.0,87,0.00,,---,0.00,VWS V14.01,2013-03-18 03:53:00,
2013-03-17 22:54:00,35.2,31.7,29.68,East,96,9.0,14.0,87,0.00,,---,0.00,VWS V14.01,2013-03-18 03:54:00,
2013-03-17 22:55:00,35.2,31.7,29.68,East,90,9.0,14.0,87,0.00,,---,0.00,VWS V14.01,2013-03-18 03:55:00,
2013-03-17 22:58:00,35.2,32.0,29.68,East,100,11.0,14.0,88,0.00,,---,0.00,VWS V14.01,2013-03-18 03:58:00,
2013-03-17 22:59:00,35.2,32.0,29.68,East,86,10.0,14.0,88,0.00,,---,0.00,VWS V14.01,2013-03-18 03:59:00,
2013-03-17 23:00:00,35.2,32.0,29.66,East,94,9.0,14.0,88,0.00,,---,0.00,VWS V14.01,2013-03-18 04:00:00,
2013-03-17 23:05:00,35.2,32.3,29.66,East,97,11.0,13.0,89,0.00,,---,0.00,VWS V14.01,2013-03-18 04:05:00,
2013-03-17 23:10:00,35.2,32.3,29.66,East,95,5.0,14.0,89,0.00,,---,0.00,VWS V14.01,2013-03-18 04:10:00,
2013-03-17 23:15:00,35.2,32.3,29.69,East,94,3.0,7.0,89,0.00,,---,0.00,VWS V14.01,2013-03-18 04:15:00,
2013-03-17 23:20:00,35.0,32.4,29.69,East,93,0.0,0.0,90,0.00,,---,0.00,VWS V14.01,2013-03-18 04:20:00,
2013-03-17 23:25:00,35.2,32.6,29.69,East,93,0.0,0.0,90,0.00,,---,0.00,VWS V14.01,2013-03-18 04:25:00,
2013-03-17 23:30:00,35.2,32.6,29.71,East,93,0.0,0.0,90,0.00,,---,0.00,VWS V14.01,2013-03-18 04:30:00,
2013-03-17 23:35:00,35.2,32.6,29.71,East,93,0.0,0.0,90,0.01,,---,0.01,VWS V14.01,2013-03-18 04:35:00,
2013-03-17 23:40:00,35.2,32.6,29.71,East,93,0.0,0.0,90,0.01,,---,0.01,VWS V14.01,2013-03-18 04:40:00,
2013-03-17 23:45:00,35.2,32.6,29.72,East,93,0.0,0.0,90,0.01,,---,0.01,VWS V14.01,2013-03-18 04:45:00,
2013-03-17 23:50:00,35.2,32.8,29.72,East,93,0.0,0.0,91,0.01,,---,0.01,VWS V14.01,2013-03-18 04:50:00,
2013-03-17 23:55:00,35.2,32.6,29.72,East,93,0.0,0.0,90,0.01,,---,0.01,VWS V14.01,2013-03-18 04:55:00,